                ,  0.290,  0.386,  0.483,  0.580,  0.676,  0.773,  0.869,  0.966,  1.063,  1.159,  1.256,  1.352,  1.449,  1.545,  1.642,  1.739,  1.835,  1.932,  2.028,  2.125,  2.222,  2.318,  2.415,  2.511,  2.608,  2.705,  2.801,  2.898,  2.994,  3.091,  3.188,  3.284,  3.381,  3.477,  3.574,  3.671,  3.767,  3.864,  3.960,  4.057,  4.153,  4.250,  4.347,  4.443,  4.540,  4.636,  4.733,  4.830,  4.926,  5.023,  5.119,  5.216,  5.313,  5.409,  5.506,  5.602,  5.699,  5.796
2004/10/04 00:00,  999.0,   -2.3,    3.9,    1.5,    2.5,   -0.2,   -1.9,   -1.4,    0.2,    0.2,    0.4,    0.6,   -0.7,    0.8,    1.0,    0.7,    0.3,    1.3,    1.2,    1.6,    1.5,    0.5,  999.0,   -3.3,   -7.2,  -17.8,  999.0,  999.0,  999.0,  999.0,  999.0,  999.0,    0.7,    0.7,    0.7,    0.9,    0.5,    0.6,    0.5,    0.7,    1.3,    0.7,   20.0,   17.0,  999.0,    0.6,   41.9,   21.5,   21.2,   21.1,   21.3,   21.0,    0.7,    0.8,   21.5,   -0.3,   -0.3,   21.6
2004/10/04 00:10,  999.0,  999.0,  999.0,    1.0,    0.2,    0.2,   -1.6,   -2.6,   -1.2,   -0.4,   -0.5,   -0.2,    0.0,   -0.3,    1.3,    1.4,    1.0,    0.6,    0.6,   -0.2,   -1.9,  999.0,   -1.4,   -3.1,   -6.8,   -4.2,  999.0,  999.0,  999.0,  999.0,  999.0,  999.0,  999.0,  999.0,  999.0,  999.0,  999.0,  999.0,   22.4,   22.8,  999.0,  999.0,   30.1,  999.0,  999.0,   21.5,  999.0,   20.3,  999.0,   21.3,   25.7,  999.0,    2.1,   14.5,    0.8,  999.0,  999.0,   20.9
2004/10/04 00:20,  999.0,  999.0,  999.0,  999.0,  999.0,   -2.0,   -1.2,   -2.3,   -0.3,   -2.9,   -1.3,   -0.2,    0.2,   -0.1,    0.2,    0.0,   -0.1,   -0.1,    3.6,   -6.0,  999.0,  999.0,  999.0,  999.0,  999.0,  999.0,  999.0,  999.0,  999.0,  999.0,  999.0,  999.0,  999.0,    0.7,    3.4,  999.0,  999.0,  999.0,  999.0,  999.0,  999.0,  999.0,  999.0,  999.0,  999.0,  999.0,  999.0,  999.0,  999.0,  999.0,  999.0,  999.0,  999.0,  999.0,  999.0,  999.0,  999.0,    1.9
2004/10/04 00:30,  999.0,    1.3,  999.0,   -0.7,    0.8,    0.8,    0.4,   -1.3,   -1.2,   -1.0,   -1.4,  999.0,   -0.5,   -0.4,   -0.8,   -1.5,   -1.5,   -2.1,   -4.1,   -0.9,   -2.4,   -1.4,  999.0,   -7.9,  999.0,    1.0,  -12.3,    3.4,  -13.8,  -10.6,  999.0,  999.0,  999.0,  -11.7,  999.0,  999.0,  999.0,  999.0,  999.0,  999.0,  999.0,  999.0,  999.0,  -12.8,  999.0,  999.0,  999.0,  -42.3,  -32.5,  999.0,  -39.2,  -41.4,  -36.4,  999.0,  -21.0,  -21.2,  999.0,  999.0
2004/10/04 00:40,  999.0,  999.0,  999.0,    0.3,    0.3,    2.3,    1.9,    1.8,   -1.6,   -1.0,    1.7,   -0.5,    0.0,    0.8,    1.2,    1.6,    1.6,    1.9,    1.2,    0.5,    0.6,   -0.9,   -3.1,   -4.7,   -5.6,   -6.7,   -7.6,   -8.3,  -18.4,  999.0,   -1.7,  999.0,  999.0,    2.0,   -4.0,  999.0,  999.0,  999.0,  999.0,  -26.0,  -35.4,  -41.9,  999.0,  -20.1,  -35.5,  -31.8,  -24.8,  -34.8,  -42.9,  -42.3,  -42.0,  -41.7,  -36.4,  -35.7,  -41.9,  -42.1,  -35.2,  999.0
2004/10/04 00:50,  999.0,  999.0,  999.0,    4.3,    4.5,    4.1,    1.1,    1.1,    0.3,    0.1,    1.1,    0.6,    0.7,    0.8,    0.6,    1.4,    1.8,    2.4,    3.4,    3.6,    4.3,    8.1,   15.9,   16.5,  -11.1,  999.0,   -6.4,  -11.4,  -16.3,  -10.9,  -11.7,   -7.8,  999.0,    0.0,  -36.4,  999.0,  -30.7,  -38.4,  -41.9,  -41.8,  -34.5,  -26.6,  -35.3,  -33.2,  -25.8,  -23.0,  -37.2,  -25.0,  -13.6,  -17.6,  -17.8,  -17.9,  -17.5,  -23.7,  -15.3,  -23.9,  -10.5,  -19.4
2004/10/04 01:00,  999.0,   -0.3,   -0.3,    0.7,    1.4,    3.0,    0.6,    0.1,    0.1,   -0.8,    0.4,   -0.4,   -0.6,   -0.1,    0.3,   -0.9,   -0.4,   -0.8,   -0.9,   -2.7,   -3.9,   -7.7,   -8.4,   -9.5,  -11.4,  999.0,  999.0,  -17.3,  -18.7,  -19.2,  -19.5,  -19.8,  -21.8,  -21.5,  999.0,  999.0,  999.0,  999.0,  999.0,  999.0,  999.0,  999.0,  999.0,  999.0,  999.0,  999.0,  -41.8,  999.0,  -41.6,  999.0,  999.0,  999.0,  -42.0,  999.0,  999.0,  -42.0,  999.0,  999.0
2004/10/04 01:10,  999.0,  999.0,   -0.6,    1.2,    1.7,    0.4,    0.4,    0.7,    1.4,    1.0,    1.1,    0.7,    0.9,   -0.4,   -3.2,   -2.1,   -2.4,   -0.1,   -4.1,   -4.3,   -1.6,   -8.7,   -5.2,   -1.4,   -7.9,  -11.5,  -23.1,  -16.0,  -18.8,  -14.4,  -14.6,   -5.1,  -22.4,  -21.4,  -33.3,  -41.9,  -42.0,  -41.9,  -41.7,  -28.0,  -21.2,  999.0,  -28.0,  -29.8,  -36.6,  -36.8,  -35.0,  -31.6,  -31.8,  999.0,  -29.9,  -41.9,  -35.9,  -37.3,  -39.5,  -41.5,  -31.5,  -42.2
2004/10/04 01:20,  999.0,  999.0,  999.0,  999.0,    0.5,    1.0,    1.1,    2.4,    0.9,    1.5,    2.6,    2.3,    1.9,    1.6,    0.3,   -2.1,   -3.7,   -4.4,   -3.8,    6.9,    8.0,    8.5,    0.3,   -4.7,  -10.3,   -2.2,   -1.3,   -7.5,    3.1,  -22.4,  999.0,  999.0,  999.0,  999.0,  999.0,  999.0,  -23.6,    0.1,  999.0,  999.0,  999.0,  999.0,  999.0,  -21.1,  -18.9,  -17.2,  -35.2,  -38.8,  -20.5,  999.0,  -15.6,  -22.3,  -27.5,  -21.1,  -27.9,  -21.3,  -21.4,  -31.4
2004/10/04 01:30,  999.0,    3.0,    2.2,    4.1,    3.3,    0.1,    2.9,    4.5,    5.4,    2.8,    1.9,    0.8,    1.5,    1.3,    1.0,    0.8,    1.4,    2.8,   -3.1,   -1.7,    9.6,    6.0,   14.3,   14.6,   16.4,  999.0,   -1.5,   -1.8,   -1.9,  999.0,  999.0,  999.0,  999.0,  999.0,  999.0,   -1.1,   -0.7,  999.0,   -0.8,  999.0,  999.0,  999.0,   -0.6,  -10.8,   -9.1,   -0.9,   -0.7,   -0.8,   -0.8,  -11.0,   -0.9,   -0.8,   -0.8,   -0.6,   -0.7,  -21.3,   -0.6,   -0.8
2004/10/04 01:40,  999.0,    0.4,    2.2,    0.7,   -0.2,   -0.1,    0.9,    1.8,   -1.3,    2.8,    1.7,    0.8,    1.2,    2.0,    1.0,    0.9,    0.9,    0.3,    3.0,   10.3,   13.6,   17.6,  999.0,   10.4,   10.7,   12.5,    8.0,    7.1,    6.7,    6.1,    3.2,   15.8,   -1.2,  999.0,  999.0,  999.0,  999.0,  -38.3,  -22.6,   -1.7,  999.0,    3.4,  -13.5,  -17.5,  -18.5,   -9.5,   -4.2,  999.0,  -21.9,  -19.3,  -15.7,   -6.4,   -0.8,  999.0,  -11.5,  -28.2,  999.0,   -0.6
2004/10/04 01:50,  999.0,    2.5,    2.1,   -1.3,    0.1,    0.1,    0.0,    1.8,    2.5,    3.9,    2.3,    2.8,    2.1,    2.4,    2.7,    1.7,    2.4,    1.6,    1.3,    1.4,    3.1,    5.9,  999.0,   10.4,   10.0,   11.9,    8.0,    8.5,    8.6,    8.8,    8.2,   10.4,   10.6,   17.3,   18.7,  999.0,  999.0,  999.0,   23.6,   25.1,  999.0,   24.4,   14.5,   -0.6,   -0.9,   -0.9,   -0.7,   -1.0,   -1.0,   -0.6,  999.0,   -1.6,   -8.5,  -10.2,   -1.3,   -8.0,   -0.7,  999.0
2004/10/04 02:00,  999.0,    2.3,    1.4,    0.5,    1.5,   -1.6,    4.3,    3.0,    4.9,    2.0,    2.9,    2.7,    2.7,    3.1,    3.1,    2.1,    1.0,  999.0,    0.9,    2.7,    5.9,  999.0,  999.0,    9.1,   15.3,    4.9,  999.0,  999.0,    7.6,  -10.1,  999.0,   -3.0,   14.0,   26.7,    0.1,   10.4,  -10.1,   -0.1,    0.1,   14.4,    4.2,  -12.8,  -10.9,  -17.5,  -35.9,  999.0,  -31.8,  -19.3,  -18.1,  -33.0,  999.0,  -40.1,  999.0,  999.0,  999.0,  999.0,  -41.9,  999.0
2004/10/04 02:10,  999.0,    1.0,   -2.1,    0.3,   -2.3,    0.8,    3.9,    1.5,    1.3,    0.2,    0.7,    1.8,    1.2,    2.1,    2.1,    1.0,    0.5,   -2.3,   -0.2,   -0.6,   -1.9,  999.0,   -1.3,    0.4,   -0.1,   -1.0,   -4.6,   -4.1,   -2.9,   -5.9,   -8.4,   -9.1,  -10.3,  -12.0,  999.0,  -14.5,  -13.2,  -13.3,  -15.1,  999.0,  999.0,  999.0,  999.0,  999.0,  999.0,  999.0,  999.0,  999.0,  999.0,  999.0,    0.7,  999.0,  999.0,    0.7,  999.0,  999.0,  999.0,    0.7
2004/10/04 02:20,  999.0,  999.0,   -0.5,   -0.5,   -2.9,    0.4,  999.0,   -2.5,   -2.9,   -1.5,    1.0,    1.4,    1.8,    2.3,    2.4,    2.0,    1.1,    2.5,    2.4,    2.5,    1.1,  999.0,   -1.4,    0.7,   -1.0,   -1.4,    2.9,    2.4,    1.2,    0.9,  999.0,  -11.8,   -3.8,  -17.0,  999.0,  999.0,  999.0,  -21.0,  -21.7,  999.0,  999.0,  999.0,  999.0,   -2.6,  999.0,  999.0,  999.0,  999.0,  999.0,  999.0,  999.0,  999.0,  999.0,  999.0,  999.0,  999.0,  999.0,  999.0
2004/10/04 02:30,  999.0,  999.0,    0.7,    1.3,    1.2,    0.7,   -2.5,    4.5,    3.2,    1.0,    2.2,    1.4,    1.6,  999.0,   -0.3,   -0.4,   -1.4,   -2.2,   -1.5,   -0.5,  999.0,   -4.7,   -8.9,   -6.7,  -11.0,   -7.2,  -14.9,  -12.8,  -17.6,  -19.4,  -24.0,  999.0,  -29.9,  -31.2,  -33.8,  -30.8,  -29.3,  -30.8,  -24.6,  -41.8,  999.0,  -37.8,  -42.0,  999.0,  999.0,  999.0,  999.0,  999.0,  999.0,  999.0,  999.0,  999.0,  999.0,  999.0,  999.0,  999.0,  999.0,  999.0
2004/10/04 02:40,  999.0,  999.0,    0.2,   -0.9,  999.0,  999.0,    3.8,    2.7,    1.5,    0.4,   -1.6,  999.0,   -3.8,   -2.3,    1.1,    0.0,    0.8,   -5.4,  999.0,   22.3,   14.6,   10.5,   20.7,   -3.9,    5.7,    9.5,   19.3,    5.2,    8.2,    7.0,    9.3,   42.2,    9.5,    8.5,    7.5,    8.0,   -7.9,    5.2,  999.0,   20.8,    6.7,    7.6,   -2.9,  999.0,  999.0,  999.0,  999.0,  999.0,  -14.5,   -4.4,   10.8,  999.0,   -0.4,  -21.7,  -21.2,  999.0,  -30.3,  -28.5
2004/10/04 02:50,  999.0,    0.3,    2.4,    1.9,    2.3,    0.9,    0.6,    1.6,    1.0,    0.1,    0.1,   -0.6,   -2.1,    3.6,    4.9,    3.3,    5.7,  999.0,  999.0,  999.0,  999.0,   35.0,   23.5,   34.1,   32.2,  999.0,   39.4,   41.7,  999.0,   42.3,   42.2,  999.0,   34.6,   30.7,   29.9,   19.5,  999.0,  999.0,   17.4,    8.1,   14.4,   17.8,   26.2,  999.0,    7.2,  999.0,  999.0,  999.0,   -4.0,   -8.3,  -18.7,  -22.4,  -27.4,  -34.4,  -32.9,  999.0,  999.0,  -26.2
2004/10/04 03:00,  999.0,    1.1,    1.0,    2.4,    0.5,   -1.2,    0.5,    4.7,    1.5,    1.5,    0.9,    0.9,    0.9,    2.1,  999.0,   -4.7,   11.7,   14.3,  999.0,  999.0,   17.7,   25.6,   27.4,  999.0,  999.0,   24.7,   19.1,   24.6,   26.4,   30.4,   18.1,   26.6,  999.0,  999.0,   16.3,   24.2,   31.1,  999.0,  999.0,  999.0,   10.9,   19.3,   16.0,   19.1,   21.0,  999.0,   28.1,    9.5,   16.1,  999.0,   27.7,   23.7,  999.0,  999.0,  999.0,  -21.5,  -21.2,  -10.7
2004/10/04 03:10,  999.0,    1.9,    1.6,   -0.0,    2.2,    4.0,    2.8,    3.8,    6.8,    4.9,   12.5,    9.4,   11.3,    8.7,  999.0,  999.0,   13.1,  999.0,  999.0,    8.1,    9.1,    6.8,  999.0,    6.5,   19.3,   12.0,    8.1,    8.8,    4.7,   -0.3,    3.5,    6.1,  999.0,   41.5,   -1.7,  -25.5,  999.0,   16.9,  999.0,    8.5,  999.0,    8.5,    8.2,  -10.9,   20.8,  999.0,  999.0,  999.0,   -3.9,   -9.4,  -23.3,  -36.9,  -32.1,  -19.4,  -26.1,  -34.0,  -38.7,  -42.0
2004/10/04 03:20,  999.0,   -0.2,    2.1,    0.7,  999.0,    4.0,    3.5,    5.7,    3.3,    3.7,    3.3,    2.2,    2.6,    2.5,    1.4,    0.9,    3.0,    0.8,  999.0,  999.0,    8.8,   -1.3,  999.0,    7.2,   -9.7,    9.2,   19.4,   19.6,   19.6,  999.0,  999.0,   -5.7,  999.0,  999.0,  -34.0,  -24.6,    6.9,  999.0,    1.6,   -9.4,  -19.2,  -10.8,  -37.4,  999.0,  999.0,  -38.4,  999.0,  -26.2,  -29.5,  -36.5,  999.0,  999.0,  999.0,  -38.2,  -39.2,  -41.1,  -41.8,  999.0
2004/10/04 03:30,  999.0,  999.0,  999.0,    3.9,    5.3,    0.8,    1.7,    3.6,   -0.3,    3.4,    2.8,    2.6,    1.5,    2.0,    1.6,    0.7,   -0.3,   -1.8,   -2.8,  999.0,  -11.9,   -9.2,  -12.4,   -9.1,   -5.9,  -10.1,   -9.9,  -16.3,  -12.9,  999.0,  999.0,  999.0,  999.0,  -22.0,  999.0,  -18.9,   -8.6,  999.0,  999.0,  -19.0,  -21.2,  -20.4,  999.0,  999.0,  999.0,  999.0,    6.4,  999.0,  -17.8,  -18.5,  999.0,  -25.9,  -26.1,  999.0,  -42.1,  -42.1,  -38.8,  -41.5
2004/10/04 03:40,  999.0,   -0.1,   -0.3,   -0.7,    1.1,    0.6,   -0.0,  999.0,    3.7,    4.1,    4.2,    4.0,    2.7,    1.1,   -0.0,   -0.8,   -2.1,   -2.7,   -2.2,   -2.7,   -7.8,   -8.0,   -6.1,   -6.6,   -8.6,   -9.6,  -12.3,  -13.3,  999.0,  999.0,  999.0,  999.0,  -13.2,  -20.6,  -14.5,  -21.1,  -10.2,  -14.5,  999.0,  999.0,  999.0,  -16.4,  999.0,  -28.3,  999.0,  999.0,  999.0,  999.0,  -25.3,  -27.3,  -30.4,  -25.7,  -30.2,  -29.5,  -28.2,  -36.3,  -37.7,  -36.9
2004/10/04 03:50,  999.0,  999.0,    4.1,    3.9,    3.0,    2.8,    4.0,    1.9,    0.5,    2.1,    3.0,    3.2,    3.2,    3.1,    4.2,    5.0,    5.1,    7.0,    4.9,    3.8,    3.0,    3.5,    5.2,    8.5,    6.4,    1.9,  999.0,  999.0,  999.0,  999.0,  999.0,  999.0,  999.0,  999.0,  999.0,  999.0,    8.4,   15.6,   -7.9,    0.0,    5.3,    4.9,    1.3,   -2.6,   -3.7,   -3.9,   -4.0,   -4.7,   -5.6,   -6.5,   -7.7,   -8.6,   -9.4,  -11.0,  -12.5,  -15.7,  -23.0,  -22.9
2004/10/04 04:00,  999.0,    4.1,    5.3,    4.8,    4.3,    4.0,    4.5,    5.2,    2.2,    3.1,    3.1,    3.0,    3.1,    2.8,    0.9,    1.2,    4.5,    3.8,    5.1,    9.1,    4.9,    4.6,    4.6,    7.6,   11.1,    4.2,  999.0,  999.0,  999.0,  999.0,   -5.8,   -0.4,  999.0,   -9.4,   -6.5,  999.0,  999.0,  999.0,    4.4,   13.9,    9.4,    8.2,    5.3,    1.7,   -2.2,   -2.9,   -2.7,   -3.8,   -4.7,   -5.4,   -5.4,   -5.8,   -6.1,   -6.4,   -7.7,   -8.7,   -9.8,  -11.4
2004/10/04 04:10,  999.0,  999.0,    5.4,    3.5,    3.0,    3.8,    3.6,    2.9,    4.4,    4.4,    4.3,    5.5,    7.5,    9.2,  999.0,   10.6,  999.0,  999.0,  999.0,  999.0,  999.0,  999.0,  999.0,  999.0,  999.0,  999.0,  999.0,  -21.3,  999.0,   -8.4,   -5.3,   -4.8,   -8.7,   -7.6,   -1.3,   -3.2,  999.0,   -9.9,   -1.8,  999.0,  -15.4,   -4.2,   -1.9,   -0.5,    0.0,   -1.0,   -2.3,   -3.3,   -4.0,   -4.6,   -4.8,   -5.0,   -4.6,   -6.3,   -6.6,   -8.0,  -10.6,  -11.9
2004/10/04 04:20,  999.0,  999.0,  999.0,    4.9,    5.5,    4.9,  999.0,   -0.1,    8.1,    9.9,   14.9,   14.4,   14.4,  999.0,   12.0,    0.4,    1.4,    0.4,   -0.0,   -0.0,   -0.2,   -0.2,   -0.6,   -1.5,   -2.4,   -2.2,   -1.9,   -1.9,   -2.1,   -2.0,   -2.1,   -2.0,   -0.9,   -1.5,    1.3,    2.3,    0.1,   -0.9,   -1.2,   -3.3,   -3.7,   -2.7,   -2.9,   -3.1,   -3.4,   -3.5,   -3.6,   -4.3,   -5.1,   -6.4,   -7.6,   -7.9,   -6.1,   -6.4,  999.0,  999.0,  999.0,  999.0
2004/10/04 04:30,  999.0,  999.0,    1.4,    4.2,    4.7,    5.4,    5.7,    5.7,    5.3,    4.7,    5.1,    4.8,    4.6,    5.2,    3.6,    3.0,    3.1,    2.3,    2.6,    1.7,    1.0,    1.8,    0.3,   -0.7,    0.2,    0.5,    0.5,    0.1,    0.1,   -0.8,   -1.6,   -1.4,   -1.8,   -2.8,   -5.8,   -8.9,   -1.2,   -2.4,   -1.0,   -1.0,   -1.7,   -2.7,   -3.3,   -3.4,   -3.6,   -4.3,   -4.6,   -5.1,   -5.4,   -6.0,   -6.8,   -7.6,   -9.8,  -10.6,  -12.4,  -13.4,  -14.6,  -15.3
2004/10/04 04:40,  999.0,  999.0,    4.0,    5.8,    5.7,    7.2,    8.1,    6.4,    3.8,    3.3,    4.1,    5.3,    5.6,    2.5,   -1.3,  999.0,  999.0,   -0.5,    2.9,    4.1,    2.3,    2.1,    2.6,    1.7,    1.9,    1.4,    0.7,    0.5,   -0.8,   -1.6,    0.3,   -0.3,   -1.2,    1.0,  999.0,    5.8,    3.6,   -0.7,   -1.0,   -2.3,   -3.0,   -1.6,   -1.0,   -0.9,   -1.4,   -1.9,   -2.8,   -3.4,   -4.0,   -5.5,   -7.2,   -8.6,  -10.0,  -10.7,  -12.5,  999.0,  999.0,  999.0
2004/10/04 04:50,  999.0,  999.0,    3.9,    5.3,    6.7,    7.9,    7.1,    4.3,  999.0,  999.0,  999.0,  999.0,  999.0,  999.0,  999.0,  999.0,  999.0,  999.0,  999.0,    2.5,    1.7,    1.7,    0.6,    0.1,    0.2,    0.6,    1.3,    1.3,    0.9,   -1.8,   -2.5,   -3.4,  999.0,   -0.8,    1.8,    0.8,   -0.0,    1.3,    0.0,    0.6,    0.9,    1.3,    0.6,   -0.4,   -1.6,   -2.2,   -3.4,   -5.3,   -7.2,   -8.7,   -9.6,   -9.7,   -9.6,  999.0,  999.0,  999.0,  999.0,  999.0
2004/10/04 05:00,  999.0,    2.2,    3.3,    4.0,    4.4,    3.6,    3.3,    3.1,    3.5,    3.0,    2.8,    2.6,    1.5,    1.2,    0.7,    1.6,    1.1,    1.2,    0.1,    0.4,   -0.0,   -0.3,   -0.6,   -1.3,   -1.3,   -1.4,   -1.2,   -0.9,   -1.2,   -2.2,   -2.5,   -2.5,   -0.9,   -0.9,   -0.0,   -1.5,   -1.6,   -1.2,   -0.0,    1.0,    0.6,   -0.6,   -1.8,   -2.3,   -2.6,   -3.2,   -4.2,   -5.3,   -6.7,   -8.1,   -8.8,   -9.5,  -10.6,  -10.6,  -10.2,   -9.7,   -7.6,   -1.5
2004/10/04 05:10,  999.0,    0.1,    1.1,   -1.6,   -1.4,    2.5,    4.6,    5.2,    4.0,    0.5,   -0.3,    0.2,    0.4,   -0.5,   -1.3,   -1.4,   -2.9,   -2.0,   -2.5,   -2.1,   -1.5,   -1.7,   -1.6,   -1.3,   -0.7,    0.6,    1.1,    0.6,   -1.4,   -0.7,    0.4,    0.2,    1.2,    1.2,    1.4,   -0.3,   -2.4,   -1.9,   -1.4,    0.1,    0.2,   -0.6,   -2.1,   -3.0,   -3.5,   -4.2,   -4.6,   -5.5,   -7.4,   -9.4,  -10.1,  -10.4,  -11.1,   -9.3,   -7.7,   -4.4,   -1.5,    0.4
2004/10/04 05:20,    2.4,    3.4,    4.8,    4.8,    4.8,    5.1,    4.8,    4.6,    3.3,    3.5,    2.5,    2.7,    2.0,    1.6,    1.1,    1.0,    1.4,    2.1,    3.3,    0.5,    0.2,    0.9,    1.0,    0.5,    0.6,    0.9,    1.2,    1.8,    2.8,    2.7,    4.1,   -1.2,   -1.2,   -2.2,    0.4,    1.2,    1.1,    2.0,    0.9,    1.0,    1.4,    1.2,    0.6,   -0.2,   -1.0,   -1.6,   -2.4,   -3.6,   -4.9,   -6.1,   -7.5,   -8.1,   -8.9,   -8.1,  -11.4,   -5.2,   -3.5,   -3.1
2004/10/04 05:30,  999.0,  999.0,  999.0,  999.0,    4.1,    5.3,  999.0,    5.2,    3.7,    3.0,    3.1,    4.7,  999.0,  999.0,  999.0,  999.0,  999.0,  999.0,  999.0,  999.0,  999.0,    2.3,  999.0,    6.2,    4.6,    7.8,    6.1,    9.6,   10.4,    8.2,    7.2,  999.0,  999.0,  999.0,  999.0,  999.0,  999.0,  999.0,    7.4,    5.1,    4.2,    2.1,    0.1,   -2.4,   -4.5,   -4.3,   -2.8,   -2.0,   -1.8,   -2.7,   -5.0,  -13.9,  -14.7,  -16.3,  -14.5,  -10.3,   -4.3,  -17.7
2004/10/04 05:40,  999.0,    3.1,    3.5,    2.4,    2.9,    4.2,    2.2,    4.5,    4.8,    5.6,    7.5,    8.4,    7.0,    5.1,   -6.1,  999.0,    2.8,  999.0,  999.0,   -7.8,  999.0,    0.8,   -3.2,  -29.0,  -13.0,   -9.0,   -6.3,   -8.7,   -0.7,  -11.1,  -13.6,  -10.9,   -8.7,   -4.6,   -3.3,   -3.3,   -3.9,   -6.5,   -2.4,   -0.4,    1.1,    1.6,    2.8,    3.3,    4.1,    4.5,    3.8,    2.2,    6.7,    4.1,   -2.5,   -6.8,  -20.4,  999.0,  999.0,  -16.3,  999.0,  -27.8
2004/10/04 05:50,  999.0,    3.0,    4.4,    5.2,    5.0,    4.8,    4.1,    3.1,    2.6,    3.1,    1.2,    0.7,  999.0,    0.7,    1.5,  999.0,  999.0,  -10.4,  -12.0,   -7.4,   -8.8,   -9.7,   -9.9,  -11.0,  -11.0,  999.0,  999.0,  999.0,   -1.0,   -1.9,   -9.1,   -4.4,   -7.2,   -6.3,   -4.0,   -6.2,  999.0,   -9.2,   -6.8,   -3.8,   -1.5,    0.6,   -1.1,    0.5,  999.0,  999.0,   -6.3,   -6.7,  999.0,  999.0,  999.0,    5.2,  999.0,  999.0,  999.0,  999.0,  999.0,  999.0
2004/10/04 06:00,  999.0,    1.1,    2.1,    1.4,    3.4,    4.7,    5.7,    5.2,    5.0,   10.8,   12.6,    4.3,  999.0,  999.0,    5.7,   -4.7,  999.0,   -3.3,   -7.4,   -7.5,  999.0,  999.0,    7.1,  999.0,  -14.9,  999.0,   20.1,   13.3,   -7.9,    4.4,   -0.5,   -7.6,   -6.0,   -5.7,   14.2,  -14.1,   -1.1,    0.5,   -1.0,   -0.6,   -1.1,    0.5,   -5.3,   -2.4,  999.0,  999.0,   -6.7,   -5.1,   -0.2,   -0.7,   -0.7,   -0.8,   -0.5,   -0.5,    2.4,  999.0,    1.9,    0.5
2004/10/04 06:10,  999.0,  999.0,    3.0,    3.2,    4.0,    4.6,  999.0,   10.8,    7.4,    6.8,    6.3,    8.3,    7.4,  999.0,   12.2,  999.0,  999.0,  999.0,  999.0,  999.0,  999.0,  999.0,   22.4,  999.0,   24.0,   26.6,   25.7,   26.6,   40.5,   21.2,   20.8,   21.0,   27.5,   31.4,   21.4,   21.4,  999.0,  999.0,   19.3,   17.8,   14.4,  999.0,  999.0,  999.0,  999.0,  999.0,  999.0,  999.0,  999.0,  999.0,  999.0,  999.0,  999.0,  999.0,  999.0,  999.0,  999.0,  999.0
2004/10/04 06:20,  999.0,  999.0,  999.0,  999.0,    3.5,    4.6,  999.0,  999.0,    8.1,   11.0,   13.4,    8.7,  999.0,  999.0,  999.0,  999.0,  999.0,  999.0,  999.0,  999.0,  999.0,   40.2,   27.8,   36.6,   41.5,   42.1,   27.7,   37.5,   41.9,   41.9,   34.7,   42.1,   41.7,   41.9,   41.8,   42.2,   28.8,   21.7,   41.8,   41.8,  999.0,  999.0,  999.0,  999.0,  999.0,   29.3,  999.0,  999.0,  999.0,  999.0,  999.0,   14.1,   16.0,   13.6,    0.1,   -6.5,   21.3,    1.3
2004/10/04 06:30,  -11.4,  -19.6,  -10.8,   -6.0,  999.0,   -0.6,   -1.9,  999.0,  999.0,  999.0,    5.1,  999.0,   34.1,  999.0,   40.9,  999.0,  999.0,   31.2,  999.0,   31.4,   41.5,   36.2,   41.8,   41.9,   41.6,   42.0,   41.6,  999.0,   41.7,   41.8,   41.7,   41.6,   41.8,   42.0,   41.9,   41.8,   41.9,   42.0,   42.0,   41.5,  999.0,   41.8,   41.9,   41.7,   41.6,  999.0,   41.6,   41.8,  999.0,   41.8,  999.0,  999.0,   41.7,   41.6,   41.4,  999.0,   41.8,   41.6
2004/10/04 06:40,  999.0,    0.9,    4.4,    5.2,    8.1,   10.2,   16.2,   13.2,  999.0,   17.8,   18.0,   16.4,   23.9,   27.4,   30.0,  999.0,  999.0,  999.0,  999.0,  999.0,  999.0,  999.0,   34.5,   27.5,  999.0,   30.7,   38.6,  999.0,   35.6,   35.4,   34.5,   22.7,  999.0,   26.3,   31.4,   34.5,   41.9,   19.5,   28.0,  999.0,  999.0,  999.0,   25.5,   30.5,  999.0,   41.7,  999.0,   21.8,   21.5,   21.2,   20.6,   23.2,    8.9,    7.1,   15.9,  999.0,    0.2,  999.0
2004/10/04 06:50,  999.0,    0.3,    1.2,    1.8,    1.7,    3.7,    8.0,    5.8,  999.0,  999.0,  999.0,  999.0,  999.0,  999.0,  999.0,  999.0,  999.0,  999.0,  999.0,  999.0,  999.0,  999.0,  999.0,  999.0,  999.0,  999.0,  999.0,   19.4,  999.0,   21.3,  999.0,  999.0,  999.0,  999.0,   41.8,  999.0,   31.8,   21.9,  999.0,  999.0,  999.0,  999.0,  999.0,  999.0,  999.0,  999.0,   41.5,   41.8,   41.7,  999.0,   41.8,   41.7,   41.9,   41.9,   41.9,  999.0,   42.2,   42.3
2004/10/04 07:00,  999.0,    0.9,    1.9,    2.6,    3.0,    4.3,    4.3,    5.0,  999.0,    4.3,  999.0,   10.9,  999.0,   20.8,   20.9,   17.4,  999.0,  999.0,  999.0,  -10.2,  -10.6,   12.0,   12.4,  999.0,  999.0,  999.0,   21.4,   15.6,   10.7,    1.4,    1.2,   -0.8,    9.1,    8.3,  999.0,  999.0,  999.0,   13.9,   17.2,   18.0,   17.9,  999.0,  999.0,  999.0,  999.0,  999.0,  999.0,  999.0,   23.8,   28.1,   25.6,   25.6,   31.3,   18.8,   16.5,   14.5,   12.2,    9.4
2004/10/04 07:10,  999.0,    1.1,    1.9,    2.4,    3.0,    5.1,    4.6,    4.9,    5.4,    4.2,    3.7,  999.0,  999.0,  999.0,  999.0,  999.0,  999.0,  999.0,  999.0,  999.0,    5.1,    4.4,    6.8,  999.0,  999.0,  999.0,  999.0,  999.0,   12.6,   14.3,  999.0,  999.0,   13.3,  999.0,  999.0,  999.0,  999.0,   20.7,   19.6,   20.8,  999.0,  999.0,  999.0,  999.0,  999.0,  999.0,  999.0,   40.3,   40.7,   39.0,   42.1,   38.7,   36.6,   33.2,   34.8,   33.8,   19.1,   35.0
2004/10/04 07:20,  999.0,    0.5,    0.9,    1.0,    0.6,    3.6,    4.9,    5.4,    6.1,    4.3,    7.0,    7.0,    9.4,  999.0,  999.0,  999.0,  999.0,  999.0,  999.0,  999.0,   11.8,    7.5,    9.6,  999.0,  999.0,  999.0,  999.0,   17.1,    4.4,  999.0,    6.6,    7.0,  999.0,   19.5,   19.2,   11.7,   11.4,   13.6,   13.9,   11.8,   21.8,  999.0,  999.0,  999.0,  999.0,  999.0,  999.0,   21.6,  999.0,  999.0,  999.0,  999.0,   39.2,  999.0,  999.0,  999.0,  999.0,  999.0
2004/10/04 07:30,  999.0,    0.6,    0.6,    0.7,    0.6,    3.7,    6.2,    6.0,    7.0,    8.1,   14.5,   15.0,   21.5,  999.0,  999.0,   11.7,   21.0,  999.0,  999.0,  999.0,   28.7,   10.7,  999.0,  999.0,  999.0,  999.0,  999.0,  999.0,   13.9,   15.1,  999.0,  999.0,    8.1,    0.9,  999.0,   20.0,   22.0,   22.1,   20.6,   20.7,   20.4,  999.0,  999.0,  999.0,  999.0,  999.0,  999.0,  999.0,   41.5,  999.0,  999.0,  999.0,  999.0,  999.0,  999.0,  999.0,   23.2,   13.8
2004/10/04 07:40,  999.0,    0.9,    1.5,    1.0,  999.0,    7.0,  999.0,  999.0,  999.0,   20.3,   21.2,   20.6,   23.8,   16.3,   14.7,   13.4,   19.6,  999.0,   25.5,   20.4,   29.0,   28.1,   20.8,   23.1,   41.5,  999.0,   31.4,  999.0,   13.6,   23.3,  999.0,  999.0,  999.0,   20.6,  999.0,  999.0,    7.1,   11.5,    7.7,   12.0,    6.4,  999.0,  999.0,  999.0,  999.0,   21.2,   20.2,   19.1,    1.6,   -3.6,   -4.3,    7.1,  999.0,  -11.1,  -17.3,  999.0,  -25.7,  -14.9
2004/10/04 07:50,  999.0,   -0.2,    0.7,    0.8,    0.4,    4.0,  999.0,  999.0,   21.6,   23.4,   23.6,   23.3,  999.0,   28.5,   26.7,   25.8,   31.2,   33.2,   35.3,   37.2,   40.0,   42.0,   41.9,   42.4,   42.0,   41.4,   35.3,   31.3,  999.0,  999.0,  999.0,  999.0,  999.0,  999.0,  999.0,   22.8,   16.2,   16.3,   13.9,    9.7,   10.8,   16.6,  999.0,  999.0,  999.0,  999.0,  999.0,  999.0,   10.3,    0.2,    2.7,  999.0,  999.0,  999.0,   -2.2,   -1.0,  -13.7,  -14.4
2004/10/04 08:00,  999.0,   -0.9,  999.0,    0.6,    1.4,    3.0,    4.3,  999.0,  999.0,   20.9,  999.0,   23.4,   24.5,   26.0,   25.4,   27.6,   29.2,   30.1,   37.0,   39.1,   40.3,  999.0,  999.0,  999.0,  999.0,  999.0,  999.0,  999.0,  999.0,  999.0,   16.5,   10.1,    9.5,    8.6,   10.6,   11.3,   13.4,   16.4,   13.7,   14.2,   15.0,   16.5,   20.0,  999.0,  999.0,  999.0,  999.0,  999.0,    8.2,    7.3,   12.9,  999.0,  999.0,  999.0,  999.0,  999.0,   -0.9,  999.0
2004/10/04 08:10,  999.0,  999.0,  999.0,    1.0,    0.7,    2.7,    2.3,  999.0,  999.0,  999.0,  999.0,  999.0,  999.0,  999.0,  999.0,  999.0,  999.0,  999.0,  999.0,  999.0,  999.0,  999.0,  999.0,  999.0,  999.0,  999.0,  999.0,    9.1,   10.2,   13.8,  999.0,  999.0,   14.0,   13.9,  999.0,  999.0,  999.0,  999.0,  999.0,   22.4,   23.0,   23.4,   23.6,   22.9,  999.0,  999.0,    4.9,    3.9,   -2.9,  999.0,  999.0,  999.0,  -24.8,  999.0,  999.0,  -33.8,  -41.5,  999.0
2004/10/04 08:20,  999.0,    0.2,    0.7,    0.6,  999.0,    1.7,    2.4,    3.3,   14.0,    2.8,  999.0,  999.0,  999.0,  999.0,  999.0,  999.0,  999.0,  999.0,   25.9,   21.5,   21.1,  999.0,  999.0,   17.3,  999.0,   13.8,  999.0,   -6.5,   -1.3,  999.0,  999.0,   -3.9,   -1.9,  999.0,  999.0,  999.0,  999.0,  999.0,    5.4,    3.3,   -0.9,    0.0,   -1.6,    7.3,  999.0,  999.0,   -5.0,   -4.7,    0.3,  -10.8,    5.2,  -16.0,  -12.8,   -3.3,   -9.9,   -4.4,    4.0,  -20.9
2004/10/04 08:30,    1.8,  999.0,  999.0,   -0.3,  999.0,    2.5,  999.0,    1.3,  999.0,    3.2,    3.2,    4.0,    4.1,  999.0,  999.0,  999.0,  999.0,  999.0,   19.0,  999.0,  999.0,   12.4,  999.0,  999.0,  999.0,  999.0,   20.9,    1.1,   -4.1,   -0.8,   18.2,   16.4,   14.8,   16.3,   16.6,  999.0,  999.0,   20.9,  999.0,   23.3,   23.3,   23.5,   23.7,   23.0,   21.8,   19.7,   15.6,   14.3,   15.5,  999.0,  999.0,  999.0,   -0.6,   -0.7,   -0.7,   -1.0,   -0.9,   -0.8
2004/10/04 08:40,    0.7,  999.0,  999.0,  999.0,  999.0,  999.0,  999.0,    2.2,    3.2,  999.0,    4.0,    3.2,  999.0,  999.0,  999.0,  999.0,  999.0,  999.0,  999.0,  999.0,  999.0,   14.7,  999.0,  999.0,   20.5,  999.0,   19.6,   20.2,   20.3,   19.1,   18.2,   18.3,   17.5,   16.4,   16.2,  999.0,   19.4,   21.2,   21.9,   23.0,   23.7,  999.0,   23.4,   22.9,  999.0,  999.0,   16.5,   16.1,   15.0,   14.0,  999.0,  999.0,  999.0,   -0.8,   -0.8,   -0.6,   -0.7,   -0.7
2004/10/04 08:50,    2.3,  999.0,  999.0,  999.0,  999.0,  999.0,    1.8,    2.5,    2.8,  999.0,    4.0,    3.6,  999.0,  999.0,  999.0,  999.0,  999.0,  999.0,  999.0,  999.0,   12.8,   14.7,  999.0,   17.1,  999.0,  999.0,   20.0,   14.9,  999.0,   14.6,   17.0,    7.0,   14.4,   16.5,   16.6,  999.0,   17.2,   19.1,  999.0,   22.9,   23.5,  999.0,   23.0,   23.0,  999.0,  999.0,  999.0,  999.0,   15.9,  999.0,  999.0,  999.0,   -0.4,   -0.9,   -0.6,   -0.6,   -0.5,   -0.8
2004/10/04 09:00,    5.4,  999.0,  999.0,  999.0,  999.0,  999.0,    2.7,    3.3,    2.9,  999.0,    3.1,    3.3,    2.8,    0.5,  999.0,  999.0,  999.0,  999.0,    4.8,  999.0,  999.0,   14.5,   14.4,  999.0,   17.2,   19.1,   18.3,   19.5,   18.8,   17.0,   15.8,   16.7,   16.7,   16.2,   16.2,   16.1,  999.0,   18.7,  999.0,  999.0,  999.0,  999.0,  999.0,  999.0,  999.0,  999.0,   -1.1,   -0.6,   -0.6,   -0.8,   -0.7,   -1.2,   -0.5,   -0.8,   -0.8,   -0.9,   -0.7,   -0.6
2004/10/04 09:10,    4.5,  999.0,  999.0,   -3.0,   -0.1,    1.5,    3.5,    3.9,    3.5,    3.6,    4.1,    3.2,    4.0,    4.2,  999.0,  999.0,  999.0,   10.8,   12.6,  999.0,  999.0,   18.4,   18.5,   19.8,  999.0,  999.0,   19.9,   20.0,   18.9,  999.0,   16.0,  999.0,   16.0,   16.4,   17.3,   16.8,   16.9,   17.7,  999.0,  999.0,  999.0,  999.0,  999.0,  999.0,  999.0,  999.0,   -1.0,   -1.2,   -1.0,   -0.7,   -0.6,   -0.6,   -0.8,   -0.5,   -0.7,  999.0,   -1.0,   -1.1
2004/10/04 09:20,  999.0,  999.0,  999.0,  999.0,  999.0,   -9.5,   -6.7,   -4.8,   -3.8,  999.0,   -1.1,    0.3,  999.0,  999.0,  999.0,  999.0,  999.0,  999.0,  999.0,  999.0,  999.0,  999.0,   15.7,   16.6,  999.0,   19.8,   19.6,  999.0,  999.0,  999.0,  999.0,  999.0,   17.3,   17.6,   17.8,   18.2,   18.0,   18.4,   17.8,  999.0,  999.0,  999.0,  999.0,  999.0,  999.0,  999.0,   -0.7,   -0.7,   -0.8,   -0.5,   -0.9,   -0.9,   -0.6,   -0.8,   -0.5,   -0.2,   -0.6,   -0.9
2004/10/04 09:30,    2.4,  999.0,  999.0,  999.0,  999.0,  999.0,   -4.2,   -4.3,   -4.3,   -3.9,   -2.9,   -2.3,    3.2,  999.0,  999.0,  999.0,  999.0,  999.0,    2.2,  999.0,  999.0,  999.0,    9.0,  999.0,    6.3,   15.2,   19.4,  999.0,  999.0,   16.4,   16.3,  999.0,   15.4,   16.0,   16.9,   17.5,   12.2,   18.4,  999.0,  999.0,  999.0,  999.0,  999.0,  999.0,   -0.9,   -0.5,   -0.7,   -0.7,   -0.8,   -0.8,   -0.8,   -0.7,   -0.9,   -0.6,   -0.7,   -0.9,   -0.2,   -0.8
2004/10/04 09:40,    2.4,  999.0,  999.0,  999.0,  999.0,  999.0,   -3.0,   -1.9,   -0.8,  999.0,  999.0,    2.5,    2.0,  999.0,  999.0,  999.0,  999.0,  999.0,  999.0,  999.0,  999.0,  999.0,  999.0,   19.9,  999.0,   20.0,   20.2,  999.0,   18.7,  999.0,   15.5,   14.5,   15.4,   15.4,   16.1,   17.7,   17.7,   19.0,  999.0,  999.0,  999.0,  999.0,  999.0,  999.0,   -0.4,   -0.6,   -0.7,   -0.8,   -0.5,  999.0,   -0.5,   -0.9,   -0.6,   -0.4,   -0.5,   -0.6,   -0.8,   -0.2
2004/10/04 09:50,  999.0,  999.0,  999.0,  999.0,  999.0,   -2.2,    1.6,    3.7,    3.1,    2.8,    2.8,    3.8,    2.6,  999.0,  999.0,  999.0,  999.0,  999.0,  999.0,   14.8,   16.9,  999.0,  999.0,   20.1,   18.0,   20.3,   13.1,  999.0,  999.0,    9.8,   15.7,   11.9,    7.4,    9.6,   13.9,   15.7,   17.0,  999.0,  999.0,  999.0,  999.0,  999.0,  999.0,   -0.7,   -0.3,   -0.7,   -0.6,   -0.7,   -0.7,   -0.7,   -0.6,   -0.3,   -0.4,   -0.6,   -0.6,   -1.0,   -1.0,   -1.0
2004/10/04 10:00,    0.7,  999.0,  999.0,  999.0,  999.0,    1.0,    5.0,    5.1,    4.2,    3.9,  999.0,    2.7,    1.6,    2.1,  999.0,    2.0,  999.0,  999.0,  999.0,  999.0,  999.0,  999.0,  999.0,  999.0,  999.0,   20.1,   19.8,  999.0,  999.0,  999.0,   16.2,    8.3,   10.3,   10.2,   11.4,   15.5,   17.7,  999.0,  999.0,  999.0,  999.0,  999.0,  999.0,   -0.6,   -0.7,  999.0,   -0.8,   -0.8,   -0.9,   -0.7,   -0.6,   -0.5,   -1.1,   -0.9,   -1.0,   -0.4,   -1.0,   -0.6
2004/10/04 10:10,    1.9,  999.0,  999.0,  999.0,  999.0,  999.0,    4.5,    6.0,    4.7,    4.4,    3.9,    3.7,    2.2,    2.2,  999.0,  999.0,  999.0,  999.0,    9.1,   12.8,  999.0,   19.6,   16.2,   18.7,   20.0,   19.9,  999.0,  999.0,  999.0,  999.0,   17.4,   16.8,   16.0,   15.5,   14.9,  999.0,  999.0,  999.0,  999.0,  999.0,  999.0,   -0.5,   -0.9,   -0.4,   -0.3,   -0.6,   -0.7,   -0.7,   -0.8,   -0.7,   -0.7,   -0.6,   -0.8,   -0.7,   -0.7,   -0.7,   -0.7,   -0.7
2004/10/04 10:20,    0.8,  999.0,  999.0,  999.0,  999.0,  999.0,    5.1,    4.4,    4.6,    4.6,    4.3,    3.0,    1.5,    2.3,  999.0,  999.0,  999.0,  999.0,  999.0,   15.0,  999.0,  999.0,   19.2,   19.8,   19.6,  999.0,  999.0,  999.0,   16.7,   17.2,   16.9,   16.9,   16.5,   16.6,   15.8,  999.0,  999.0,  999.0,  999.0,  999.0,  999.0,   -1.0,   -0.6,   -0.7,   -0.8,   -0.9,   -0.9,   -1.1,   -1.1,   -0.3,  999.0,   -0.8,   -0.6,   -0.6,   -0.8,   -0.3,   -0.7,   -0.9
2004/10/04 10:30,  999.0,    0.8,   -0.4,    0.5,    1.6,    2.1,    3.5,    4.1,    3.5,    3.6,    3.0,    2.4,    1.0,    0.4,  999.0,  999.0,    0.4,  999.0,  999.0,  999.0,  999.0,   -0.6,   -0.6,   -0.7,   -0.3,  999.0,   -0.4,   -3.1,   -3.1,   -2.2,   -2.8,   -3.6,   -4.5,   -4.6,  999.0,  999.0,  999.0,  999.0,  999.0,  999.0,  999.0,  999.0,  999.0,  999.0,  999.0,  999.0,  999.0,  999.0,  999.0,  999.0,  999.0,  999.0,  999.0,  999.0,  999.0,  999.0,  999.0,  999.0
2004/10/04 10:40,  999.0,   -0.1,    0.8,    1.7,    2.8,    3.1,    4.1,    4.7,    3.7,    3.9,    3.0,    1.6,    1.2,  999.0,  999.0,  999.0,  999.0,  999.0,  999.0,   -0.8,  999.0,   -0.7,   -1.3,  999.0,  999.0,   -0.1,   -0.9,   -2.3,   -2.9,   -2.7,   -3.1,   -3.7,   -4.2,   -3.9,   -4.4,  999.0,  999.0,  999.0,  999.0,  999.0,  999.0,  999.0,  999.0,  999.0,  999.0,  999.0,  999.0,  999.0,  999.0,  999.0,  999.0,  999.0,  999.0,  999.0,  999.0,  999.0,  999.0,  999.0
2004/10/04 10:50,  999.0,    1.2,    0.7,    1.3,    2.4,    3.8,    3.4,    3.6,    3.4,    3.1,    2.3,    1.2,    0.8,    0.7,  999.0,  999.0,  999.0,  999.0,  999.0,  999.0,  999.0,  999.0,   -0.3,   -0.5,   -1.4,    0.6,   -2.0,   -2.7,   -3.5,  999.0,  999.0,   -3.6,   -4.6,  999.0,  999.0,  999.0,  999.0,  999.0,  999.0,  999.0,  999.0,  999.0,  999.0,  999.0,  999.0,  999.0,  999.0,  999.0,  999.0,  999.0,  999.0,  999.0,  999.0,  999.0,  999.0,  999.0,  999.0,  999.0
2004/10/04 11:00,  999.0,    1.3,    0.4,    1.0,    1.8,    3.9,    5.7,    5.7,    4.2,    1.1,    0.3,    0.6,    0.6,  999.0,    0.9,    1.4,    0.7,    0.6,    0.8,   -0.5,   -0.4,   -0.6,   -1.3,   -0.3,    0.4,   -0.4,   -2.3,   -3.0,   -3.9,  999.0,   -3.5,   -4.3,  999.0,   -4.4,  999.0,  999.0,  999.0,  999.0,  999.0,  999.0,  999.0,  999.0,  999.0,  999.0,  999.0,  999.0,  999.0,  999.0,  999.0,  999.0,  999.0,  999.0,  999.0,  999.0,  999.0,  999.0,  999.0,  999.0
2004/10/04 11:10,  999.0,  999.0,  999.0,  999.0,    3.0,    4.6,    4.4,    4.7,    4.5,    3.7,    1.6,    1.6,    1.4,  999.0,    0.2,    0.3,  999.0,    0.1,   -0.2,   -0.6,   -0.8,   -1.5,   -1.7,   -0.5,  999.0,   -0.9,   -2.5,   -4.1,   -4.6,  999.0,   -4.4,   -4.8,   -4.6,   -4.8,  999.0,  999.0,  999.0,  999.0,  999.0,   -1.5,   -2.4,   -3.0,   -2.8,   -2.3,   -2.4,  999.0,   -0.9,  999.0,  999.0,  999.0,  999.0,  999.0,  999.0,  999.0,  999.0,  999.0,  999.0,  999.0
2004/10/04 11:20,  999.0,    1.2,    0.2,   -0.1,    2.4,    2.5,    4.1,    4.4,    5.0,  999.0,    4.1,    2.4,    2.9,    2.2,    0.7,    0.9,  999.0,   -0.1,    0.3,    0.0,   -0.4,   -1.0,   -1.6,   -0.4,    0.2,   -1.2,   -2.9,   -3.6,   -3.8,   -4.2,   -4.5,   -4.0,   -3.4,   -3.1,   -2.8,   -2.8,   -2.1,   -2.6,   -2.6,   -1.5,   -2.2,   -2.5,   -2.4,   -1.6,   -2.1,  999.0,  999.0,   -1.7,  999.0,  999.0,  999.0,  999.0,  999.0,  999.0,  999.0,  999.0,  999.0,  999.0
2004/10/04 11:30,  999.0,  999.0,   -1.6,   -0.4,  999.0,    2.5,  999.0,    2.0,    1.2,    1.3,    2.3,    1.8,    0.9,    0.9,    1.6,  999.0,    0.1,    0.7,    0.6,    0.4,   -0.5,  999.0,   -0.1,    0.2,   -0.2,   -1.6,   -2.7,   -3.2,  999.0,   -3.9,   -4.0,   -3.4,   -3.6,   -3.7,   -2.7,   -3.0,   -2.4,   -2.1,   -1.7,   -1.4,  999.0,  999.0,  999.0,  999.0,  999.0,  999.0,  999.0,  999.0,  999.0,  999.0,  999.0,  999.0,  999.0,  999.0,  999.0,  999.0,  999.0,  999.0
2004/10/04 11:40,  999.0,    1.7,    1.0,   -0.5,   -0.6,    1.1,    1.3,    1.0,    0.9,    1.5,    1.8,    1.2,    0.1,    0.3,  999.0,   -0.1,   -0.2,   -1.3,   -0.7,   -0.6,  999.0,  999.0,  999.0,   -0.1,   -0.6,   -1.5,   -2.9,   -3.8,   -4.2,   -4.4,   -3.2,   -3.0,   -4.0,   -3.6,   -2.7,   -3.0,   -1.7,   -1.2,   -1.0,   -1.4,  999.0,  999.0,  999.0,   -1.1,  999.0,  999.0,   -0.5,   -1.4,   -2.3,  999.0,  999.0,  999.0,  999.0,  999.0,  999.0,  999.0,  999.0,  999.0
2004/10/04 11:50,  999.0,    2.5,    1.6,    1.2,    1.6,    1.1,    1.1,    3.3,    1.9,    1.9,    2.1,    2.0,    0.9,    0.4,    0.0,   -0.9,   -0.3,    0.5,    1.1,    0.6,  999.0,    0.1,  999.0,    0.1,  999.0,   -2.6,   -3.0,   -3.5,   -3.8,  999.0,   -3.4,   -3.8,   -4.7,  999.0,  999.0,  999.0,   -1.2,   -1.0,   -0.9,  999.0,  999.0,  999.0,  999.0,  999.0,    0.5,    1.4,   -0.2,   -1.2,   -1.4,  999.0,  999.0,  999.0,  999.0,  999.0,  999.0,  999.0,  999.0,  999.0
2004/10/04 12:00,  999.0,  999.0,  999.0,    1.4,    2.1,    2.6,    3.5,    4.0,    2.2,    1.1,    1.8,    1.6,   -0.1,   -1.2,   -0.8,   -0.6,   -0.0,   -0.3,    0.6,    0.3,  999.0,    4.9,    3.4,    4.3,    2.6,    2.0,    1.7,    1.4,    1.6,    3.5,    2.9,    2.4,    4.8,  999.0,  999.0,  999.0,  999.0,   13.4,   15.6,   20.9,  999.0,  999.0,  999.0,  999.0,  999.0,  999.0,   20.2,   19.7,   18.5,  999.0,  999.0,  999.0,  999.0,  999.0,  999.0,  999.0,  999.0,  999.0
2004/10/04 12:10,  999.0,    2.1,    2.9,    2.0,    2.5,    2.8,    2.0,    2.4,    3.1,    2.6,    2.1,    1.8,    1.6,    1.4,    0.1,   -1.1,   -2.5,   -0.4,    0.3,   -0.2,  999.0,   -0.4,    2.0,    3.9,  999.0,    2.2,    2.2,    2.3,    2.7,    3.7,    3.9,    4.0,    5.9,  999.0,  999.0,  999.0,   10.2,   15.4,  999.0,  999.0,  999.0,  999.0,  999.0,  999.0,  999.0,  999.0,   19.8,   19.5,   18.3,  999.0,  999.0,  999.0,  999.0,  999.0,  999.0,  999.0,  999.0,  999.0
2004/10/04 12:20,  999.0,    1.5,    1.9,    1.2,    1.3,    1.0,    1.2,    2.0,    2.5,    2.4,    2.5,    2.9,    1.8,    1.2,    2.0,    3.2,    2.2,    3.3,    2.6,    0.4,    1.7,  999.0,  999.0,  999.0,  999.0,    0.4,    1.3,    1.9,    2.5,    4.9,    5.4,    3.5,  999.0,  999.0,  999.0,  999.0,   15.0,   15.6,   15.4,  999.0,  999.0,  999.0,  999.0,  999.0,   19.7,  999.0,   20.0,   19.6,   19.0,   18.3,  999.0,  999.0,  999.0,  999.0,  999.0,  999.0,  999.0,  999.0
2004/10/04 12:30,  999.0,    3.5,    1.6,    3.0,    4.2,    2.8,    2.4,    2.7,    2.9,    2.8,    2.4,    2.1,    2.1,    1.7,    1.9,    2.0,    1.7,    0.8,    1.6,    0.3,    0.3,    1.8,    2.6,  999.0,  999.0,    6.0,    6.5,    6.6,    7.9,    8.4,    8.8,    9.1,  999.0,  999.0,  999.0,  999.0,  999.0,  999.0,  999.0,  999.0,  999.0,  999.0,  999.0,  999.0,   20.1,   19.8,   19.2,   19.0,   17.7,  999.0,  999.0,  999.0,  999.0,  999.0,  999.0,  999.0,  999.0,  999.0
2004/10/04 12:40,  999.0,    1.7,    2.8,    3.0,    4.1,    3.0,    4.7,    3.3,    4.1,    3.6,    2.4,    2.3,    2.2,    1.6,    1.6,    1.7,    1.9,    1.3,    0.4,   -0.4,   -1.1,   -0.1,    1.3,  999.0,    0.6,    1.2,    0.5,    2.1,    1.7,    3.7,    4.7,  999.0,  999.0,  999.0,  999.0,  999.0,  999.0,  999.0,  999.0,  999.0,  999.0,  999.0,  999.0,  999.0,  999.0,   21.2,  999.0,   19.4,   18.7,  999.0,  999.0,  999.0,  999.0,  999.0,  999.0,  999.0,  999.0,  999.0
2004/10/04 12:50,  999.0,  999.0,    1.0,    1.5,    2.2,    2.4,    3.3,    3.6,    3.6,    5.6,    3.6,    2.4,    1.3,    1.2,    1.4,    0.8,    0.5,    0.0,   -0.1,   -0.9,   -1.0,   -0.3,  999.0,  999.0,    4.2,    2.1,    2.8,    3.4,    4.1,    4.0,    4.4,  999.0,  999.0,  999.0,  999.0,  999.0,  999.0,  999.0,  999.0,  999.0,  999.0,  999.0,  999.0,  999.0,  999.0,  999.0,   18.9,   18.5,   17.7,  999.0,  999.0,  999.0,  999.0,  999.0,  999.0,  999.0,  999.0,  999.0
2004/10/04 13:00,  999.0,  999.0,    1.3,    1.3,    1.0,    1.3,    2.9,    1.3,    2.6,    4.3,    3.3,    5.2,    4.9,    5.1,    2.3,    1.7,    0.8,    0.0,   -1.7,   -2.5,   -2.6,   -2.3,  999.0,  999.0,  999.0,    2.1,    3.1,    5.1,    4.8,    5.6,  999.0,  999.0,  999.0,  999.0,  999.0,  999.0,  999.0,  999.0,  999.0,  999.0,  999.0,  999.0,  999.0,  999.0,  999.0,  999.0,   19.9,   19.3,   18.3,  999.0,  999.0,  999.0,  999.0,  999.0,  999.0,  999.0,  999.0,  999.0
2004/10/04 13:10,  999.0,    3.9,    2.2,    1.5,    1.7,    3.5,    3.3,    4.7,    4.0,    4.1,    3.6,    2.3,    2.0,    1.6,    1.1,    1.9,    2.4,    2.6,    1.3,   -0.8,   -1.6,   -1.0,   -0.6,  999.0,  999.0,    2.8,    2.8,    3.4,    4.4,    8.1,  999.0,  999.0,  999.0,  999.0,  999.0,  999.0,  999.0,  999.0,  999.0,  999.0,  999.0,  999.0,  999.0,  999.0,  999.0,   20.1,   19.3,   18.9,   18.9,  999.0,  999.0,  999.0,  999.0,  999.0,  999.0,  999.0,  999.0,  999.0
2004/10/04 13:20,  999.0,  999.0,    6.2,    3.7,    3.0,    3.0,    5.4,    6.3,    3.2,    4.8,    0.7,    0.5,  999.0,  999.0,  999.0,   -2.1,   -2.2,   -0.5,   -0.8,   -1.7,   -1.5,   -1.2,   -0.7,   -2.5,   -0.8,   -0.9,   -1.3,   -1.0,   -0.8,   -0.3,  999.0,  999.0,  999.0,  999.0,  999.0,  999.0,  999.0,  999.0,  999.0,  999.0,  999.0,  999.0,  999.0,  999.0,  999.0,  999.0,   19.9,   19.6,   19.0,  999.0,  999.0,  999.0,  999.0,  999.0,  999.0,  999.0,  999.0,  999.0
2004/10/04 13:30,  999.0,    5.0,    0.8,    4.4,    5.8,    5.2,    4.5,    3.6,    3.1,    3.5,    3.8,    5.0,    1.1,    1.5,    1.2,    0.7,    0.8,   -0.5,   -0.6,   -1.1,   -2.0,   -2.2,   -2.4,   -2.7,   -2.5,   -3.2,   -3.5,   -2.8,   -1.5,   -2.1,  999.0,  999.0,  999.0,  999.0,  999.0,  999.0,  999.0,  999.0,  999.0,  999.0,  999.0,  999.0,  999.0,  999.0,  999.0,   17.7,   17.7,   18.3,   18.4,  999.0,  999.0,  999.0,  999.0,  999.0,  999.0,  999.0,  999.0,  999.0
2004/10/04 13:40,  999.0,  999.0,    0.4,    0.9,    4.3,    3.7,    6.0,   -0.0,   -0.2,    3.1,    3.0,    3.3,    2.4,    0.7,    0.5,    0.2,    1.0,   -0.1,   -0.5,   -1.4,   -1.5,  999.0,   -0.3,   -2.2,   -3.3,   -3.5,   -3.8,   -3.0,   -2.3,   -1.8,  999.0,  999.0,  999.0,  999.0,  999.0,  999.0,  999.0,  999.0,  999.0,  999.0,  999.0,  999.0,  999.0,  999.0,  999.0,   20.2,   20.9,   20.1,  999.0,  999.0,  999.0,  999.0,  999.0,  999.0,  999.0,  999.0,  999.0,  999.0
2004/10/04 13:50,  999.0,    1.0,    0.9,    1.9,    3.0,    3.2,    4.2,    3.0,    1.9,    1.6,    1.4,    1.6,    1.5,    0.7,   -0.0,   -0.5,   -1.4,   -1.4,   -1.8,   -2.3,   -1.8,   -2.0,   -3.1,   -3.9,   -3.1,   -3.7,   -4.3,   -3.7,   -3.5,   -3.1,   -2.0,  999.0,  999.0,  999.0,  999.0,  999.0,  999.0,  999.0,  999.0,  999.0,  999.0,  999.0,  999.0,  999.0,  999.0,  999.0,   20.3,   20.1,   19.9,  999.0,  999.0,  999.0,  999.0,  999.0,  999.0,  999.0,  999.0,  999.0
2004/10/04 14:00,  999.0,    0.2,   -0.1,    0.6,    1.4,    2.4,    3.9,    3.7,    4.3,    3.8,    3.1,    1.7,    0.8,    0.3,   -0.4,   -0.8,   -1.5,   -1.4,   -1.6,   -1.4,  999.0,   -1.7,   -3.1,   -3.7,   -3.7,   -3.9,   -4.6,   -3.9,   -4.2,   -4.5,  999.0,  999.0,  999.0,  999.0,  999.0,  999.0,  999.0,  999.0,  999.0,  999.0,  999.0,  999.0,  999.0,  999.0,  999.0,  999.0,  999.0,  999.0,   19.6,   19.4,  999.0,  999.0,  999.0,  999.0,  999.0,  999.0,  999.0,  999.0
2004/10/04 14:10,  999.0,    1.8,    1.1,    4.3,    3.7,    4.8,    3.3,    2.5,    2.0,    3.5,    3.0,    2.0,    2.1,    2.7,    3.3,   -1.3,   -2.2,   -2.5,   -3.4,   -3.7,   -3.5,   -4.8,   -2.2,  999.0,   -1.9,   -3.6,   -3.6,   -1.6,   -0.3,   -0.1,    3.7,    2.3,  999.0,  999.0,  999.0,  999.0,  999.0,  999.0,  999.0,  999.0,  999.0,  999.0,  999.0,  999.0,  999.0,  999.0,  999.0,   19.9,   19.4,   19.1,  999.0,  999.0,  999.0,  999.0,  999.0,  999.0,  999.0,  999.0
2004/10/04 14:20,  999.0,    4.7,    6.7,    4.3,    6.3,    5.4,    7.1,    5.2,    5.3,    4.0,    4.3,    4.8,    4.3,    2.9,    0.9,   -1.8,   -1.3,   -2.8,  999.0,  999.0,   -2.6,   -4.0,  999.0,  999.0,  999.0,  999.0,   -4.2,   -4.8,   -3.8,   -4.1,  999.0,  999.0,  999.0,  999.0,  999.0,  999.0,  999.0,  999.0,  999.0,  999.0,  999.0,  999.0,  999.0,  999.0,  999.0,  999.0,  999.0,  999.0,  999.0,  999.0,  999.0,  999.0,  999.0,  999.0,  999.0,  999.0,  999.0,  999.0
2004/10/04 14:30,  999.0,    4.1,    3.3,    5.4,    5.3,    4.7,    6.0,    5.1,    7.2,    8.1,    5.0,    4.1,    1.8,    1.8,   -0.0,   -0.1,    0.1,   -2.2,   -4.1,   -1.9,  999.0,   -0.3,  999.0,   -2.1,  999.0,  999.0,  999.0,  999.0,  999.0,  999.0,  999.0,  999.0,  999.0,  999.0,  999.0,  999.0,  999.0,  999.0,  999.0,  999.0,  999.0,  999.0,  999.0,  999.0,  999.0,  999.0,  999.0,  999.0,  999.0,  999.0,  999.0,  999.0,  999.0,  999.0,  999.0,  999.0,  999.0,  999.0
2004/10/04 14:40,  999.0,  999.0,    1.2,    3.8,    4.3,    4.4,    5.3,    5.2,    5.1,    5.2,    4.1,    3.5,    4.2,    2.2,   -2.2,  999.0,  999.0,   -4.7,   -5.6,   -3.8,   -3.1,   -1.7,   -4.2,   -3.0,   -2.6,   -2.7,   -3.0,   -3.7,   -2.3,   -3.0,   -3.0,  999.0,  999.0,  999.0,  999.0,  999.0,  999.0,  999.0,  999.0,  999.0,  999.0,  999.0,  999.0,  999.0,  999.0,  999.0,  999.0,  999.0,  999.0,  999.0,  999.0,  999.0,  999.0,  999.0,  999.0,  999.0,  999.0,  999.0
2004/10/04 14:50,  999.0,    1.7,    1.4,    2.4,    4.0,    3.3,    4.1,    4.4,    2.9,    2.5,    1.6,    1.4,   -0.3,   -0.8,    1.6,   -0.1,   -1.5,   -2.6,   -3.5,   -3.5,   -3.6,   -3.6,   -4.3,   -4.8,   -3.8,   -4.6,   -3.2,   -1.9,   -2.3,   -2.9,  999.0,  999.0,  999.0,  999.0,  999.0,  999.0,  999.0,  999.0,  999.0,  999.0,  999.0,  999.0,  999.0,  999.0,  999.0,  999.0,  999.0,  999.0,  999.0,  999.0,  999.0,  999.0,  999.0,  999.0,  999.0,  999.0,  999.0,  999.0
2004/10/04 15:00,  999.0,    1.6,    2.8,    2.7,    2.6,    3.2,    3.1,    2.1,    1.9,    1.8,    0.5,   -1.5,   -1.5,   -0.7,   -1.1,   -2.5,   -3.0,   -3.2,   -3.9,   -4.2,  999.0,   -5.3,   -5.1,   -4.9,   -5.0,   -3.9,   -3.7,   -4.0,   -2.6,   -1.7,  999.0,  999.0,  999.0,  999.0,  999.0,  999.0,  999.0,  999.0,  999.0,  999.0,  999.0,  999.0,  999.0,  999.0,  999.0,  999.0,  999.0,  999.0,  999.0,  999.0,  999.0,  999.0,  999.0,  999.0,  999.0,  999.0,  999.0,  999.0
2004/10/04 15:10,  999.0,    1.4,    3.0,    2.9,    2.7,    4.7,    5.7,    5.4,    5.6,    4.6,    3.1,    3.1,    1.1,   -0.9,   -0.3,   -1.2,   -2.7,   -3.8,   -4.1,   -3.8,   -4.2,  999.0,  999.0,   -5.6,   -6.1,   -6.0,   -4.5,   -3.6,   -3.5,   -3.0,  999.0,  999.0,  999.0,  999.0,  999.0,  999.0,  999.0,  999.0,  999.0,  999.0,  999.0,  999.0,  999.0,  999.0,  999.0,  999.0,  999.0,  999.0,  999.0,  999.0,  999.0,  999.0,  999.0,  999.0,  999.0,  999.0,  999.0,  999.0
2004/10/04 15:20,  999.0,    5.8,    4.7,    2.7,    3.9,    4.0,    4.7,    2.6,    3.0,    1.5,    2.0,    1.2,    2.5,    3.3,    2.3,    1.5,    0.5,    0.4,   -0.3,    0.6,  999.0,  999.0,  999.0,   -4.0,   -4.0,   -3.1,   -4.8,   -5.1,   -3.7,   -3.8,   -3.3,  999.0,   -2.3,  999.0,  999.0,  999.0,  999.0,  999.0,  999.0,  999.0,  999.0,  999.0,  999.0,  999.0,  999.0,  999.0,  999.0,  999.0,  999.0,  999.0,  999.0,  999.0,  999.0,  999.0,  999.0,  999.0,  999.0,  999.0
2004/10/04 15:30,  999.0,    0.2,    2.0,    1.2,    1.7,    2.7,    3.6,    3.3,    3.5,    3.4,    1.7,    0.5,    0.2,    0.5,    0.0,   -1.3,   -1.5,   -0.6,   -0.1,    0.2,   -1.2,   -1.0,   -1.7,   -2.9,   -1.8,   -3.8,   -3.0,   -3.2,   -3.7,   -2.6,  999.0,  999.0,  999.0,  999.0,  999.0,  999.0,  999.0,  999.0,  999.0,  999.0,  999.0,  999.0,  999.0,  999.0,  999.0,  999.0,  999.0,  999.0,  999.0,  999.0,  999.0,  999.0,  999.0,  999.0,  999.0,  999.0,  999.0,  999.0
2004/10/04 15:40,  999.0,    3.0,    2.2,    2.6,    2.6,    2.9,    3.8,    2.9,    2.2,    0.3,    0.4,   -0.2,   -2.3,   -3.9,   -4.5,   -4.0,   -3.2,   -2.4,   -2.8,   -3.7,   -1.9,   -2.6,   -1.6,   -0.8,   -1.8,  999.0,  999.0,   -2.7,   -1.3,   -2.7,   -1.6,   -2.4,   -3.1,  999.0,  999.0,  999.0,  999.0,  999.0,  999.0,  999.0,  999.0,  999.0,  999.0,  999.0,  999.0,  999.0,  999.0,  999.0,  999.0,  999.0,  999.0,  999.0,  999.0,  999.0,  999.0,  999.0,  999.0,  999.0
2004/10/04 15:50,  999.0,    1.7,    3.0,    4.5,  999.0,    6.6,    4.6,    3.8,    2.4,    2.2,    1.0,   -0.9,   -1.9,   -1.8,   -4.0,   -3.5,   -3.0,   -3.9,   -3.6,   -3.0,   -2.4,   -3.2,   -3.0,   -2.9,   -2.8,   -2.8,   -2.2,   -1.6,    0.3,    1.2,    0.7,    0.9,    0.4,    0.8,  999.0,  999.0,  999.0,  999.0,  999.0,  999.0,  999.0,  999.0,  999.0,  999.0,  999.0,  999.0,  999.0,  999.0,  999.0,  999.0,  999.0,  999.0,  999.0,  999.0,  999.0,  999.0,  999.0,  999.0
2004/10/04 16:00,  999.0,    1.9,    1.4,    2.3,    3.1,    3.4,    3.0,    1.8,    1.3,    1.6,    1.4,   -0.2,   -1.4,   -2.1,   -3.2,  999.0,  999.0,   -1.7,   -0.2,   -0.6,   -0.3,   -0.3,    1.1,   -1.5,   -1.7,   -1.4,   -0.7,   -0.4,   -0.7,    0.1,    0.6,    0.7,   -0.4,  999.0,  999.0,  999.0,  999.0,  999.0,  999.0,  999.0,  999.0,  999.0,  999.0,  999.0,  999.0,  999.0,  999.0,  999.0,  999.0,  999.0,  999.0,  999.0,  999.0,  999.0,  999.0,  999.0,  999.0,  999.0
2004/10/04 16:10,  999.0,   -0.4,    0.9,    2.1,    3.7,    3.5,    1.2,    0.3,   -0.3,   -0.4,   -0.6,   -1.5,   -0.5,   -1.1,   -0.6,   -0.2,   -0.2,    0.3,   -1.4,   -0.5,   -0.1,    0.0,   -1.3,   -1.4,   -0.4,   -1.4,  999.0,   -0.3,   -1.1,   -1.3,   -0.3,   -0.4,   -1.8,   -2.1,   -1.4,   -0.6,   -0.3,    0.5,    2.8,    4.8,  999.0,  999.0,  999.0,  999.0,  999.0,  999.0,  999.0,  999.0,  999.0,  999.0,  999.0,  999.0,  999.0,  999.0,  999.0,  999.0,  999.0,  999.0
2004/10/04 16:20,  999.0,    1.4,    0.5,    1.3,    1.5,    0.9,    0.5,    0.5,    0.3,   -0.1,   -0.4,   -0.6,   -1.0,   -0.7,   -0.8,   -0.5,   -0.6,   -0.2,   -0.8,    0.2,    0.5,   -0.3,   -0.9,   -2.0,   -1.8,   -2.0,   -2.4,   -2.5,   -2.2,   -2.4,   -1.7,   -1.9,   -2.3,   -1.6,   -2.7,   -2.2,   -0.1,    1.6,    3.8,    5.0,    5.8,    7.8,  999.0,  999.0,  999.0,  999.0,  999.0,  999.0,  999.0,  999.0,  999.0,  999.0,  999.0,  999.0,  999.0,  999.0,  999.0,  999.0
2004/10/04 16:30,  999.0,    0.9,    0.6,    1.1,    0.8,    0.7,    0.6,   -0.3,   -0.2,   -0.3,   -0.2,   -0.3,   -0.3,   -0.9,   -1.2,   -1.2,   -1.1,   -2.1,   -1.3,   -0.2,   -1.1,   -0.4,   -1.3,   -1.9,   -2.6,   -2.2,   -2.5,   -3.6,   -3.6,   -3.5,   -3.1,   -4.3,   -4.2,   -3.7,   -3.3,  999.0,   -2.0,  999.0,   -5.4,  999.0,  999.0,  999.0,  999.0,  999.0,  999.0,  999.0,  999.0,  999.0,  999.0,  999.0,  999.0,  999.0,  999.0,  999.0,  999.0,  999.0,  999.0,  999.0
2004/10/04 16:40,  999.0,    3.1,    1.1,    0.9,    1.0,   -0.1,   -0.1,   -0.9,   -1.4,   -2.1,   -1.4,   -1.4,   -1.5,   -0.8,   -1.3,   -1.8,   -1.3,   -1.1,   -0.7,   -1.3,   -2.5,   -3.4,   -4.6,   -4.4,   -5.1,   -3.2,   -2.1,    0.1,   -0.9,   -0.5,   -0.0,   -1.8,   -1.0,   -1.4,    0.9,   -0.0,   -1.4,   -0.8,   -1.3,  999.0,  -11.5,  -12.0,  -11.1,   -9.9,   -8.1,   -3.9,   -2.6,   -2.0,   -3.0,   -3.2,   -4.7,   -5.2,   -5.8,   -6.9,   -7.5,   -8.4,   -8.2,   -8.9
2004/10/04 16:50,  999.0,    1.8,    0.6,    0.5,    0.4,    0.4,    0.2,   -0.0,   -0.5,   -0.7,   -0.6,   -0.2,   -0.2,   -0.1,   -0.4,   -1.9,   -2.1,   -2.2,   -2.3,   -1.4,   -3.4,   -4.2,   -4.8,   -5.1,   -4.1,   -2.1,   -1.5,   -0.8,   -0.1,   -0.2,   -0.5,   -0.9,    0.1,    0.8,    1.1,    1.5,    3.3,    2.8,    2.1,   -0.0,   -1.5,   -4.9,   -6.7,   -7.4,   -6.7,   -5.5,   -3.6,   -2.4,   -1.8,   -1.7,   -2.1,  999.0,  999.0,  999.0,  999.0,  999.0,  999.0,  999.0
2004/10/04 17:00,  999.0,    2.0,    1.6,    0.4,    0.0,    0.1,   -0.1,   -0.4,   -0.8,   -0.7,   -0.2,   -0.3,   -0.7,   -0.7,   -1.4,   -1.8,   -2.1,   -2.7,   -3.0,   -4.4,   -4.7,   -4.7,   -4.1,   -2.4,   -2.0,   -1.1,   -0.0,    0.1,   -0.1,    0.7,    1.2,    1.2,    1.2,    0.3,   -0.0,  999.0,    1.6,    2.0,    0.9,   -0.1,  999.0,  999.0,  999.0,  999.0,  999.0,  999.0,  999.0,  999.0,  999.0,  999.0,  999.0,  999.0,  999.0,  999.0,  999.0,  999.0,  999.0,  999.0
2004/10/04 17:10,  999.0,  999.0,    2.0,   -0.6,   -0.0,    0.3,    0.3,   -0.6,   -0.0,   -0.1,   -0.4,   -0.4,    0.6,   -0.9,   -1.1,   -2.1,   -2.8,   -3.7,   -4.0,   -4.7,   -4.4,   -4.1,   -4.6,   -3.4,   -2.4,   -1.2,   -0.3,   -0.2,   -0.4,   -0.1,    1.0,    1.3,    0.8,    1.2,    1.0,    1.5,    0.6,    2.5,    2.2,  999.0,  999.0,  999.0,  999.0,  999.0,  999.0,  999.0,  999.0,  999.0,  999.0,  999.0,  999.0,  999.0,  999.0,  999.0,  999.0,  999.0,  999.0,  999.0
2004/10/04 17:20,  999.0,  999.0,  999.0,    1.2,    0.4,    0.2,  999.0,   -0.6,   -3.2,   -2.2,   -1.1,   -0.7,   -1.4,   -1.3,   -2.3,   -2.4,   -2.1,   -2.8,   -3.8,   -3.7,   -4.0,   -4.4,   -4.3,   -2.7,   -3.1,  999.0,   -1.2,   -0.7,    0.0,    0.5,    0.9,    1.0,    1.1,    1.0,    1.6,    1.7,  999.0,  999.0,  999.0,  999.0,  999.0,  999.0,   11.6,   11.8,   12.7,  999.0,  999.0,  999.0,  999.0,  999.0,  999.0,  999.0,  999.0,  999.0,    4.4,    4.4,  999.0,  999.0
2004/10/04 17:30,  999.0,    3.7,    1.3,    1.5,    0.3,    0.0,   -0.4,    0.5,    0.1,    0.8,    1.6,    0.3,  999.0,   -1.1,   -0.9,   -0.7,   -1.9,   -2.1,   -3.5,   -4.4,   -4.5,   -3.0,   -2.1,   -2.2,   -1.5,   -1.2,   -1.2,    0.6,    1.0,    1.6,    1.9,    1.8,    1.9,    2.5,    3.2,    4.6,  999.0,  999.0,    6.2,  999.0,  999.0,  999.0,  999.0,    9.9,   10.3,   10.0,    6.8,    6.5,    7.3,  999.0,  999.0,  999.0,  999.0,  999.0,    5.1,    5.7,  999.0,    5.6
2004/10/04 17:40,  999.0,    4.0,    0.7,    0.6,    0.4,   -0.4,   -0.2,   -0.2,    0.9,    0.8,    0.9,    0.4,   -1.0,   -0.8,   -1.1,   -2.8,   -5.7,   -6.4,   -7.2,   -5.6,   -3.8,   -3.5,  999.0,  999.0,   -2.1,   -3.1,   -1.3,   -0.4,   -1.0,   -1.5,    0.1,    0.3,    0.5,    1.0,    0.1,  999.0,  999.0,    4.4,    4.5,  999.0,  999.0,  999.0,  999.0,  999.0,    7.9,    8.4,    8.5,    9.3,   10.6,  999.0,  999.0,  999.0,  999.0,  999.0,  999.0,    8.2,  999.0,  999.0
2004/10/04 17:50,  999.0,    4.9,    4.0,    2.1,    0.3,    1.2,    1.5,    1.0,    0.5,    0.2,    0.0,   -0.5,   -1.2,   -1.1,   -1.4,   -1.1,   -1.9,   -0.4,   -0.6,   -0.4,   -2.2,   -3.9,   -2.8,   -2.6,   -3.1,   -2.2,   -0.7,    0.0,    0.4,    0.2,   -0.2,   -0.8,   -1.2,   -0.9,   -1.7,   -0.8,   -1.5,  999.0,  999.0,  999.0,  999.0,  999.0,  999.0,  999.0,  999.0,  999.0,  999.0,  999.0,  999.0,  999.0,  999.0,  999.0,  999.0,  999.0,  999.0,  999.0,  999.0,  999.0
2004/10/04 18:00,  999.0,  999.0,  999.0,    3.3,    1.5,    0.9,    1.4,    0.9,    0.8,   -0.2,   -0.5,   -0.4,   -0.2,   -0.4,   -0.6,   -2.7,   -1.1,   -0.9,   -1.0,   -0.9,   -0.2,    0.8,    0.9,   -0.0,    0.0,    1.1,    1.3,    1.9,    0.8,   -0.4,   -1.1,   -1.5,   -2.4,   -2.8,  999.0,  999.0,  999.0,  999.0,   -0.2,  999.0,    0.4,   -0.0,   -1.4,  999.0,  999.0,  999.0,  999.0,  999.0,  999.0,  999.0,  999.0,  999.0,  999.0,  999.0,  999.0,  999.0,  999.0,  999.0
2004/10/04 18:10,  999.0,  999.0,  999.0,  999.0,  999.0,  999.0,  999.0,    2.1,    0.2,    0.6,   -0.9,    0.7,   -0.2,   -1.7,   -1.8,   -1.3,   -1.5,   -2.5,   -3.2,   -2.9,   -3.9,   -4.3,   -4.1,   -4.6,   -4.5,   -3.9,   -4.1,   -3.0,   -1.1,   -1.6,   -2.6,   -2.2,   -1.2,    0.3,  999.0,  999.0,  999.0,  999.0,    1.4,  999.0,  999.0,  999.0,  999.0,    0.4,  999.0,  999.0,  999.0,  999.0,  999.0,  999.0,   -7.0,   -8.8,   -9.1,  999.0,  -11.2,  999.0,  999.0,  999.0
2004/10/04 18:20,  999.0,   10.0,   10.0,  999.0,  999.0,   -1.0,   -2.5,   -0.2,   -1.6,   -4.6,   -2.1,   -0.0,    0.1,   -0.3,   -0.3,   -1.2,   -1.5,   -1.4,   -0.1,   -1.6,   -3.3,   -3.4,   -3.4,   -3.7,   -2.7,   -0.2,    0.1,    0.3,   -1.2,   -1.3,   -1.5,   -1.5,   -0.8,   -0.1,   -0.2,   -0.6,  999.0,  999.0,  999.0,  999.0,  999.0,  999.0,   -0.6,  999.0,  999.0,  999.0,  999.0,  999.0,  999.0,  999.0,   -6.2,  999.0,  999.0,  999.0,   -8.6,  999.0,  999.0,  999.0
2004/10/04 18:30,  999.0,  999.0,  999.0,    3.6,  999.0,    3.6,    2.3,    1.4,    0.2,   -1.0,    0.2,   -1.2,   -1.2,   -0.5,   -0.4,   -1.0,   -1.3,   -1.1,   -0.5,   -1.5,   -3.5,   -5.7,   -6.1,   -7.2,   -3.4,   -1.9,   -2.3,   -2.3,   -2.1,   -3.4,   -3.0,   -2.9,   -2.4,   -1.2,   -1.1,   -1.5,  999.0,  999.0,  999.0,  999.0,  999.0,  999.0,   -1.7,   -1.7,  999.0,  999.0,  999.0,  999.0,  999.0,  999.0,  999.0,  999.0,  999.0,   -8.5,  999.0,  999.0,  999.0,  999.0
2004/10/04 18:40,  999.0,  999.0,  999.0,  999.0,  999.0,   -1.4,   -0.4,  999.0,  999.0,   -0.9,   -2.3,   -2.1,   -1.4,    0.1,   -0.4,   -2.1,   -2.4,   -2.3,   -3.5,   -4.6,   -6.4,   -6.5,  999.0,   -5.1,   -4.2,   -3.5,   -3.1,   -2.5,   -1.4,   -0.8,   -0.3,    0.2,  999.0,  999.0,  999.0,  999.0,  999.0,  999.0,  999.0,  999.0,  999.0,  999.0,  999.0,  999.0,  999.0,  999.0,  999.0,  999.0,  999.0,  999.0,  999.0,  999.0,  999.0,  999.0,  -11.0,  -11.9,  999.0,  -10.8
2004/10/04 18:50,  999.0,  999.0,   -0.7,  999.0,  999.0,  999.0,   -2.4,  999.0,   -1.2,   -0.8,    0.5,   -0.1,   -0.1,   -2.6,   -2.2,   -2.0,   -1.9,   -2.7,   -1.9,   -1.9,   -2.4,   -3.6,   -3.5,   -3.7,  999.0,   -2.6,  999.0,   -1.8,   -1.1,   -0.8,   -0.4,  999.0,  999.0,  999.0,  999.0,  999.0,  999.0,  999.0,  999.0,  999.0,  999.0,  999.0,  999.0,  999.0,  999.0,  999.0,  999.0,  999.0,  999.0,  999.0,  999.0,  999.0,  999.0,  999.0,  999.0,  999.0,  999.0,  999.0
2004/10/04 19:00,  999.0,  999.0,  999.0,  999.0,  999.0,  999.0,  999.0,  999.0,   -7.4,  999.0,   -3.4,  999.0,   -1.5,  999.0,   -2.1,   -2.8,   -1.1,   -1.4,  999.0,   -1.2,   -0.8,   -0.7,   -1.6,  999.0,  999.0,  999.0,   -3.2,   -1.7,   -1.8,   -1.8,   -1.8,   -2.8,  999.0,  999.0,  999.0,  999.0,  999.0,  999.0,   -1.3,   -0.1,  999.0,  999.0,  999.0,  999.0,  999.0,  999.0,  999.0,  999.0,  999.0,  999.0,  999.0,  999.0,  999.0,  999.0,  999.0,  999.0,  999.0,  999.0
2004/10/04 19:10,  999.0,  999.0,  999.0,  999.0,  999.0,  999.0,  999.0,  999.0,  999.0,   -2.9,  999.0,   -5.0,   -3.9,   -2.1,   -1.9,   -1.5,   -0.6,   -1.7,  999.0,   -2.0,  999.0,   -0.6,   -3.1,  999.0,   -2.4,  999.0,  999.0,  999.0,   -3.7,   -3.5,   -3.1,   -2.5,   -3.1,   -4.2,  999.0,  999.0,  999.0,  999.0,  999.0,    1.2,    1.6,    1.2,  999.0,    0.6,  999.0,  999.0,  999.0,  999.0,  999.0,  999.0,  999.0,   -6.0,   -6.6,   -7.2,  999.0,  999.0,  999.0,  999.0
2004/10/04 19:20,  999.0,  999.0,  999.0,  999.0,  999.0,  999.0,   -4.0,   -2.4,    0.0,   -1.5,  999.0,  999.0,   -4.6,   -3.2,    0.4,   -2.9,   -3.1,   -2.7,   -3.0,   -3.3,  999.0,  999.0,  999.0,   -2.9,  999.0,  999.0,  999.0,  999.0,   -2.1,   -2.4,   -3.6,   -3.7,   -4.3,   -4.2,  999.0,  999.0,  999.0,  999.0,  999.0,  999.0,  999.0,  999.0,  999.0,  999.0,  999.0,  999.0,  999.0,  999.0,  999.0,  999.0,  999.0,   -7.1,   -8.3,  999.0,  999.0,  999.0,  999.0,  999.0
2004/10/04 19:30,  999.0,  999.0,  999.0,  999.0,   -5.4,   -8.3,   -6.1,  999.0,   -3.6,   -0.2,   -0.9,   -3.4,   -3.0,  999.0,  999.0,   -3.2,  999.0,   -2.2,   -2.5,   -3.4,   -3.5,   -5.0,  999.0,   -5.0,  999.0,  999.0,  999.0,  999.0,  999.0,   -4.5,   -4.5,   -5.3,   -5.2,   -4.8,  999.0,  999.0,  999.0,  999.0,  999.0,  999.0,  999.0,   -1.1,   -1.9,  999.0,  999.0,  999.0,  999.0,  999.0,  999.0,  999.0,  999.0,   -8.3,  999.0,  999.0,  999.0,  999.0,  999.0,  999.0
2004/10/04 19:40,  999.0,  999.0,  999.0,   -6.9,   -9.3,   -9.6,   -7.4,   -6.2,   -3.7,   -4.5,   -4.4,   -5.3,   -4.5,   -3.3,   -3.9,  999.0,  999.0,  999.0,   -4.0,  999.0,   -6.6,   -3.2,   -4.8,   -5.2,   -4.6,  999.0,  999.0,  999.0,   -3.4,   -3.6,   -3.8,   -4.6,   -4.9,   -5.0,  999.0,  999.0,  999.0,  999.0,  999.0,  999.0,  999.0,  999.0,  999.0,  999.0,  999.0,  999.0,  999.0,  999.0,  999.0,  999.0,  999.0,  999.0,  999.0,  999.0,  999.0,  999.0,  999.0,  999.0
2004/10/04 19:50,  999.0,  999.0,  999.0,   -6.8,   -8.3,   -7.9,   -9.1,   -8.6,   -6.9,   -5.6,   -2.5,   -1.8,   -2.1,  999.0,  999.0,   -4.4,  999.0,  999.0,   -3.0,  999.0,   -3.4,   -4.3,   -4.8,   -4.6,   -5.0,   -4.1,  999.0,  999.0,   -2.7,   -2.8,   -3.0,   -3.4,   -3.5,   -3.4,   -3.4,  999.0,  999.0,  999.0,  999.0,  999.0,  999.0,  999.0,   -0.7,  999.0,  999.0,  999.0,  999.0,  999.0,  999.0,  999.0,  999.0,  999.0,  999.0,  999.0,  999.0,  999.0,  999.0,  999.0
2004/10/04 20:00,  999.0,  999.0,  999.0,   -5.4,   -7.3,   -8.4,   -9.1,   -8.0,   -7.4,   -4.1,   -2.7,   -1.6,   -1.8,  999.0,  999.0,  999.0,  999.0,  999.0,  999.0,   -3.2,   -3.6,  999.0,  999.0,  999.0,  999.0,  999.0,   -4.3,  999.0,   -3.2,   -3.5,   -3.9,   -4.4,  999.0,  999.0,  999.0,  999.0,  999.0,  999.0,  999.0,  999.0,   -1.7,   -1.6,  999.0,  999.0,  999.0,  999.0,  999.0,  999.0,  999.0,  999.0,  999.0,  999.0,  999.0,  999.0,  999.0,  999.0,  999.0,  999.0
2004/10/04 20:10,  999.0,  999.0,  999.0,  999.0,   -7.6,   -8.3,   -7.8,   -8.1,   -6.6,   -5.3,   -4.3,   -2.8,   -2.9,   -1.9,   -2.6,   -0.9,  999.0,   -4.0,  999.0,   -5.2,   -5.3,   -4.5,   -5.9,   -4.6,   -5.8,   -5.3,   -4.4,   -3.4,   -3.9,   -3.7,   -4.5,   -5.3,   -5.5,  999.0,  999.0,  999.0,  999.0,  999.0,  999.0,  999.0,  999.0,   -0.8,   -1.6,  999.0,  999.0,  999.0,  999.0,  999.0,  999.0,  999.0,   -5.4,  999.0,  999.0,  999.0,  999.0,  999.0,  999.0,  999.0
2004/10/04 20:20,  999.0,  999.0,  999.0,  999.0,  999.0,  999.0,   -7.1,   -6.0,  999.0,   -2.8,   -4.6,   -4.0,   -1.6,   -1.7,   -1.5,   -1.8,   -1.5,   -3.6,   -3.1,  999.0,   -2.0,   -1.6,   -1.9,   -3.1,   -4.2,   -4.9,   -4.1,   -4.8,  999.0,   -2.7,   -3.5,   -5.1,  999.0,  999.0,  999.0,  999.0,  999.0,  999.0,  999.0,  999.0,  999.0,  999.0,  999.0,  999.0,  999.0,  999.0,  999.0,  999.0,  999.0,  999.0,  999.0,  999.0,  999.0,  999.0,  999.0,  999.0,  999.0,  999.0
2004/10/04 20:30,  999.0,   -5.9,  999.0,    0.7,   -1.1,   -1.6,   -4.1,   -2.0,   -3.4,   -4.9,   -4.1,   -3.2,   -1.8,   -1.7,   -2.0,   -2.9,   -2.6,   -2.9,   -2.7,  999.0,   -2.3,   -1.9,   -2.9,   -3.8,   -4.1,   -5.3,   -6.1,   -7.6,   -6.5,  999.0,   -3.7,   -5.0,  999.0,  999.0,  999.0,  999.0,  999.0,  999.0,  999.0,  999.0,  999.0,  999.0,  999.0,  999.0,  999.0,  999.0,  999.0,  999.0,  999.0,  999.0,  999.0,  999.0,  999.0,  999.0,  999.0,  999.0,  999.0,  999.0
2004/10/04 20:40,  999.0,  999.0,    3.2,   -1.8,   -0.4,   -3.1,  999.0,   -3.7,   -5.4,   -3.1,   -1.2,   -1.7,   -1.2,   -1.7,   -1.7,   -2.3,   -2.8,   -3.2,   -2.2,   -2.3,   -3.6,   -3.2,   -2.9,   -2.8,   -2.1,   -3.4,   -5.6,   -4.8,   -4.5,   -4.3,   -5.6,  999.0,  999.0,  999.0,  999.0,  999.0,  999.0,  999.0,  999.0,  999.0,  999.0,  999.0,  999.0,  999.0,  999.0,  999.0,  999.0,  999.0,  999.0,  999.0,  999.0,  999.0,  999.0,  999.0,  999.0,  999.0,  999.0,  999.0
2004/10/04 20:50,  999.0,  999.0,  999.0,  999.0,  999.0,   -3.3,   -1.0,    0.5,    1.5,    1.2,    0.8,  999.0,   -1.6,   -1.5,   -1.8,   -2.9,   -3.6,   -2.4,   -2.6,   -1.8,   -2.7,   -2.7,   -2.6,   -3.2,   -4.6,   -4.5,   -5.4,   -6.1,   -4.9,   -4.1,   -5.4,  999.0,  999.0,  999.0,  999.0,  999.0,  999.0,  999.0,  999.0,  999.0,  999.0,  999.0,  999.0,  999.0,  999.0,  999.0,  999.0,  999.0,  999.0,  999.0,  999.0,  999.0,  999.0,  999.0,  999.0,  999.0,  999.0,  999.0
2004/10/04 21:00,  999.0,   -3.0,    0.5,    1.1,    0.7,    0.1,    0.6,    0.9,    1.9,    4.5,    4.4,    1.7,   -1.1,   -0.7,   -0.9,   -1.1,   -1.4,   -1.9,   -1.8,   -2.5,   -4.0,   -4.0,   -3.9,  999.0,   -5.1,   -6.4,   -4.9,   -4.9,   -5.3,   -5.2,   -5.6,   -5.7,  999.0,  999.0,  999.0,  999.0,  999.0,  999.0,  999.0,  999.0,  999.0,  999.0,  999.0,  999.0,  999.0,  999.0,  999.0,  999.0,  999.0,  999.0,  999.0,  999.0,  999.0,  999.0,  999.0,  999.0,  999.0,  999.0
2004/10/04 21:10,  999.0,   -1.0,   -0.2,   -1.0,    0.2,    0.8,    0.5,    0.4,   -0.2,   -0.3,    1.1,   -0.3,    0.8,  999.0,  999.0,   -1.6,   -1.2,   -1.9,   -1.7,   -2.2,   -2.4,   -2.6,   -3.5,   -3.7,   -4.0,   -4.1,   -4.4,  999.0,   -4.8,   -5.6,   -6.0,  999.0,  999.0,  999.0,  999.0,  999.0,  999.0,  999.0,  999.0,  999.0,  999.0,  999.0,  999.0,  999.0,  999.0,  999.0,  999.0,  999.0,  999.0,  999.0,  999.0,  999.0,  999.0,  999.0,  999.0,  999.0,  999.0,  999.0
2004/10/04 21:20,  999.0,   -0.6,    2.0,    0.9,    0.1,   -0.0,   -0.5,    0.3,   -0.8,   -0.5,   -0.8,    0.1,   -1.4,   -2.2,   -2.2,   -2.0,   -2.1,   -3.2,   -3.6,   -3.4,   -1.9,   -2.5,   -4.0,   -4.8,   -5.7,   -6.4,   -6.8,   -6.0,   -5.4,   -5.1,   -5.3,   -6.1,  999.0,  999.0,  999.0,  999.0,  999.0,  999.0,  999.0,  999.0,  999.0,  999.0,  999.0,  999.0,  999.0,  999.0,  999.0,  999.0,  999.0,  999.0,  999.0,  999.0,  999.0,  999.0,  999.0,  999.0,  999.0,  999.0
2004/10/04 21:30,  999.0,   -1.0,   -0.2,   -1.1,   -0.6,   -0.8,   -2.1,   -2.3,   -3.3,   -2.0,   -2.4,   -2.8,   -1.6,   -0.6,   -0.5,   -1.3,   -2.4,   -3.0,   -3.1,   -2.6,   -3.5,   -4.6,   -5.0,   -5.4,   -6.6,   -6.6,   -7.0,   -7.4,   -6.6,   -5.9,  999.0,  999.0,  999.0,  999.0,  999.0,  999.0,  999.0,  999.0,  999.0,  999.0,  999.0,  999.0,  999.0,  999.0,  999.0,  999.0,  999.0,  999.0,  999.0,  999.0,  999.0,  999.0,  999.0,  999.0,  999.0,  999.0,  999.0,  999.0
2004/10/04 21:40,  999.0,   -2.0,   -0.6,   -2.1,   -3.0,   -3.5,   -6.1,   -4.9,   -4.4,   -3.8,   -3.4,   -2.7,   -1.7,   -0.3,    0.0,   -0.8,   -0.5,   -1.1,   -1.8,   -2.0,   -2.4,   -3.5,   -4.9,   -5.9,   -5.9,   -6.1,   -6.5,   -6.9,   -6.1,   -5.4,   -5.6,   -6.7,  999.0,  999.0,  999.0,  999.0,  999.0,  999.0,  999.0,  999.0,  999.0,  999.0,  999.0,  999.0,  999.0,  999.0,  999.0,  999.0,  999.0,  999.0,  999.0,  999.0,  999.0,  999.0,  999.0,  999.0,  999.0,  999.0
2004/10/04 21:50,  999.0,    0.1,   -1.7,   -2.2,   -3.5,   -2.7,   -4.5,   -3.2,   -3.1,   -3.1,   -3.2,   -2.6,  999.0,   -0.1,    0.1,   -0.0,   -0.4,   -2.5,   -2.2,   -4.0,   -4.3,   -4.2,   -4.5,   -5.4,   -5.2,   -6.6,   -7.2,   -6.6,   -7.3,   -6.8,   -6.4,  999.0,  999.0,  999.0,  999.0,  999.0,  999.0,  999.0,  999.0,  999.0,  999.0,  999.0,  999.0,  999.0,  999.0,  999.0,  999.0,  999.0,  999.0,  999.0,  999.0,  999.0,  999.0,  999.0,  999.0,  999.0,  999.0,  999.0
2004/10/04 22:00,  999.0,    0.3,   -1.3,   -2.7,   -2.6,   -3.1,   -3.4,   -4.6,   -4.3,   -1.4,   -1.3,   -0.9,   -0.5,    1.1,    1.0,    0.2,   -0.4,   -1.4,   -1.4,   -1.6,   -3.0,   -4.5,   -5.6,   -6.4,   -6.5,   -6.7,   -6.8,   -6.8,   -5.8,   -5.8,   -6.3,   -5.9,  999.0,  999.0,  999.0,  999.0,  999.0,  999.0,  999.0,  999.0,  999.0,  999.0,  999.0,  999.0,  999.0,  999.0,  999.0,  999.0,  999.0,  999.0,  999.0,  999.0,  999.0,  999.0,  999.0,  999.0,  999.0,  999.0
2004/10/04 22:10,  999.0,   -0.9,    0.5,    2.0,   -2.3,   -2.8,   -4.1,   -3.9,   -1.7,   -0.3,   -1.3,   -1.0,   -1.1,   -0.6,   -0.1,   -1.2,   -2.0,   -2.6,   -2.8,   -2.7,   -3.3,   -3.9,   -4.2,   -4.2,   -5.1,   -5.8,   -5.8,   -5.4,   -6.0,   -6.3,   -7.2,  999.0,  999.0,  999.0,  999.0,  999.0,  999.0,  999.0,  999.0,  999.0,  999.0,  999.0,  999.0,  999.0,  999.0,  999.0,  999.0,  999.0,  999.0,  999.0,  999.0,  999.0,  999.0,  999.0,  999.0,  999.0,  999.0,  999.0
2004/10/04 22:20,  999.0,   -0.4,    0.2,   -0.1,    0.0,   -0.8,   -1.9,   -1.4,    0.4,    0.4,    0.1,   -0.1,   -0.1,   -0.2,    0.5,   -0.6,   -1.4,   -2.0,   -3.1,   -2.7,   -2.8,   -3.6,   -4.2,   -3.9,   -4.6,   -3.8,   -4.4,   -4.3,   -5.5,   -6.1,   -6.3,  999.0,  999.0,  999.0,  999.0,  999.0,  999.0,  999.0,  999.0,  999.0,  999.0,  999.0,  999.0,  999.0,  999.0,  999.0,  999.0,  999.0,  999.0,  999.0,  999.0,  999.0,  999.0,  999.0,  999.0,  999.0,  999.0,  999.0
2004/10/04 22:30,  999.0,    1.3,    1.3,    0.9,    1.7,    1.2,    1.2,    2.3,    2.4,    1.9,    1.4,    0.3,   -1.1,    0.0,    0.0,   -0.5,   -1.2,   -2.3,   -3.0,   -4.1,   -4.3,   -3.2,   -4.2,   -4.9,   -4.6,   -4.6,   -5.3,   -5.4,   -5.9,   -6.7,  999.0,  999.0,  999.0,  999.0,  999.0,  999.0,  999.0,  999.0,  999.0,  999.0,  999.0,  999.0,  999.0,  999.0,  999.0,  999.0,  999.0,  999.0,  999.0,  999.0,  999.0,  999.0,  999.0,  999.0,  999.0,  999.0,  999.0,  999.0
2004/10/04 22:40,  999.0,  999.0,    0.0,   -0.2,    1.2,    1.6,    2.7,    1.8,    1.5,    1.5,   -0.1,    1.6,    0.9,    0.5,    0.5,   -0.2,   -0.5,   -1.7,   -2.3,   -3.4,   -4.1,   -4.4,   -4.6,  999.0,  999.0,   -4.3,   -5.4,   -5.6,   -6.0,   -7.1,   -8.0,  999.0,  999.0,  999.0,  999.0,  999.0,  999.0,  999.0,  999.0,  999.0,  999.0,  999.0,  999.0,  999.0,  999.0,  999.0,  999.0,  999.0,  999.0,  999.0,  999.0,  999.0,  999.0,  999.0,  999.0,  999.0,  999.0,  999.0
2004/10/04 22:50,  999.0,    4.3,    0.3,   -1.2,    0.8,    2.5,    0.9,    1.2,    2.0,    1.2,    0.9,    1.3,    1.2,    1.0,    2.6,    0.8,   -0.3,   -0.7,   -1.3,   -2.2,   -2.5,   -2.7,   -3.3,   -4.1,  999.0,   -5.3,   -5.5,   -5.2,   -5.5,  999.0,  999.0,  999.0,  999.0,  999.0,  999.0,  999.0,  999.0,  999.0,  999.0,  999.0,  999.0,  999.0,  999.0,  999.0,  999.0,  999.0,  999.0,  999.0,  999.0,  999.0,  999.0,  999.0,  999.0,  999.0,  999.0,  999.0,  999.0,  999.0
2004/10/04 23:00,  999.0,   -3.2,    0.7,    3.1,    2.5,    0.9,    1.4,    1.7,    5.8,    3.7,    2.0,    2.0,    1.5,    0.4,   -0.1,   -0.4,    0.0,   -0.1,   -0.2,   -1.5,   -2.5,   -3.2,   -3.1,  999.0,   -4.9,   -5.3,   -4.5,   -5.1,   -5.3,  999.0,  999.0,  999.0,  999.0,  999.0,  999.0,  999.0,  999.0,  999.0,  999.0,  999.0,  999.0,  999.0,  999.0,  999.0,  999.0,  999.0,  999.0,  999.0,  999.0,  999.0,  999.0,  999.0,  999.0,  999.0,  999.0,  999.0,  999.0,  999.0
2004/10/04 23:10,  999.0,    0.5,    0.9,    0.3,    1.4,    2.1,    3.1,    3.0,    3.6,    2.7,    2.5,    1.8,    0.6,   -1.0,   -1.8,   -2.1,   -2.3,   -2.6,   -2.4,   -2.8,   -3.6,   -2.6,   -3.5,  999.0,   -4.6,   -5.1,   -4.8,   -5.3,   -5.3,  999.0,  999.0,  999.0,  999.0,  999.0,  999.0,  999.0,  999.0,  999.0,  999.0,  999.0,  999.0,  999.0,  999.0,  999.0,  999.0,  999.0,  999.0,  999.0,  999.0,  999.0,  999.0,  999.0,  999.0,  999.0,  999.0,  999.0,  999.0,  999.0
2004/10/04 23:20,  999.0,  999.0,   -0.1,    1.8,    1.7,    2.1,    2.2,    2.5,    1.7,    2.1,    2.5,    2.0,    1.4,    0.2,   -0.4,   -1.1,   -0.7,   -0.6,   -1.2,   -1.6,   -2.4,   -2.6,   -2.4,   -2.2,   -3.6,   -3.2,   -4.2,   -5.1,   -5.6,  999.0,  999.0,  999.0,  999.0,  999.0,  999.0,  999.0,  999.0,  999.0,  999.0,  999.0,  999.0,  999.0,  999.0,  999.0,  999.0,  999.0,  999.0,  999.0,  999.0,  999.0,  999.0,  999.0,  999.0,  999.0,  999.0,  999.0,  999.0,  999.0
2004/10/04 23:30,  999.0,   -0.2,    1.4,    1.4,    1.7,    2.4,    2.2,    2.9,    3.1,    3.8,    3.3,    2.5,    1.5,    0.4,   -0.8,   -1.4,   -1.5,   -1.4,   -1.2,   -1.3,   -1.5,   -2.2,   -2.7,   -3.2,   -3.1,   -3.2,  999.0,   -2.4,   -2.3,   -1.8,  999.0,  999.0,  999.0,  999.0,  999.0,  999.0,  999.0,  999.0,  999.0,  999.0,  999.0,  999.0,  999.0,   -1.1,   -0.9,  999.0,   -0.6,   -0.9,   -1.1,   -0.7,   -0.8,   -0.5,  999.0,  999.0,   -0.7,  999.0,  999.0,  999.0
2004/10/04 23:40,  999.0,  999.0,    0.8,    1.3,    2.0,    2.6,    1.1,    1.2,    2.1,    2.5,    2.3,    1.9,    1.2,    0.4,    0.5,   -0.8,   -1.6,   -1.2,   -1.0,   -0.9,   -0.7,   -1.4,   -0.9,   -0.0,    0.8,    1.1,    2.0,    2.7,    3.0,    2.2,  999.0,  999.0,  999.0,  999.0,  999.0,  999.0,  999.0,  999.0,  999.0,  999.0,  999.0,  999.0,  999.0,  999.0,  999.0,  999.0,   -0.5,   -0.4,  999.0,  999.0,  999.0,   -0.8,  999.0,  999.0,  999.0,  999.0,  999.0,   -0.3
2004/10/04 23:50,  999.0,    0.9,    0.9,    1.0,    1.7,    2.1,    1.8,    3.0,    3.6,    2.1,    3.0,    1.8,    1.9,    1.2,    0.7,    0.0,   -0.9,   -1.0,   -0.7,   -0.6,   -1.1,   -1.9,   -2.2,   -2.9,   -4.2,   -3.7,   -3.4,   -3.3,   -3.5,   -3.7,  999.0,  999.0,  999.0,  999.0,  999.0,  999.0,  999.0,  999.0,  999.0,  999.0,  999.0,  999.0,   -1.7,  999.0,   -1.9,  999.0,   -0.7,   -0.2,  999.0,  999.0,   -0.9,  999.0,  999.0,   -1.3,   -0.6,   -0.2,  999.0,  999.0
